GFSFLT1_250_spd_024.txt.gz
Wind_Speed
38 35 32 32 34 35 37 40 42 41 40 42 45 48 50 52 53 56 58 60 63 65 66 67 67 66 66 66 69 71 72 73
34 35 37 38 39 40 42 43 42 41 44 47 49 52 54 56 59 62 65 68 68 69 69 67 68 71 76 79 79 79 79 82
33 37 40 42 45 47 46 42 44 48 51 53 54 56 60 64 66 68 70 71 73 75 75 76 79 83 84 85 88 91 92 93
41 44 47 49 47 40 43 48 51 54 55 57 61 64 68 70 72 73 75 76 76 77 80 83 87 92 93 94 99 104 104 104
44 46 42 40 44 47 50 52 53 56 59 62 66 67 70 74 76 79 81 85 88 90 93 96 98 98 99 100 105 108 107 105
42 37 42 44 48 50 50 54 57 60 63 66 69 70 73 77 81 83 81 81 83 96 99 104 107 108 108 110 111 107 106 103
39 44 46 47 48 51 56 59 62 65 67 71 74 77 79 82 84 84 88 94 99 106 108 113 122 123 116 113 109 106 105 101
45 46 45 48 53 56 62 66 68 72 75 78 79 81 84 86 89 94 97 101 107 114 118 121 130 127 118 113 110 107 102 100
45 46 50 55 59 62 66 70 74 77 79 79 84 89 92 96 98 102 107 112 115 122 123 127 133 123 115 108 103 100 96 92
48 50 55 60 64 67 70 74 77 81 84 88 92 95 98 102 105 108 115 120 126 128 130 131 124 115 107 101 96 92 89 86
54 57 60 65 67 70 75 78 80 84 88 92 96 99 103 107 111 115 123 128 130 131 132 123 114 107 101 96 93 91 88 86
58 61 65 67 71 75 78 82 85 90 95 99 102 106 110 113 120 125 132 134 132 131 125 114 107 103 99 97 93 90 86 81
62 64 66 69 75 81 87 91 94 101 103 105 108 112 117 123 129 136 135 133 129 123 114 109 105 102 97 92 87 83 79 76
67 70 75 79 86 89 92 96 101 106 108 111 115 119 126 132 134 131 129 126 119 112 109 105 101 95 87 81 78 75 72 70
72 78 82 86 91 95 98 102 107 109 113 117 123 128 133 134 132 128 124 115 111 108 104 97 90 84 78 74 71 69 67 64
80 81 86 93 98 103 105 109 113 116 120 127 132 134 130 126 123 117 110 107 103 98 90 84 80 77 73 69 64 61 59 58
84 89 94 99 103 105 111 115 120 125 129 137 130 125 121 116 109 108 105 102 95 88 82 78 75 71 68 63 60 56 54 52
93 95 98 104 107 113 118 124 129 133 133 126 121 117 110 104 104 103 97 90 84 79 76 72 68 63 60 56 54 53 51 48
97 100 106 111 115 119 128 132 134 128 121 117 112 105 101 101 99 93 87 83 79 74 69 65 61 57 53 51 51 50 48 46

GFSFLT1_250_spd_027.txt.gz
Wind_Speed
32 35 36 32 34 36 37 40 44 45 44 44 44 48 50 50 51 53 56 58 60 60 62 64 68 69 70 70 70 70 73 74
32 30 32 37 43 44 45 43 41 38 42 47 49 50 52 56 57 59 63 65 66 68 69 70 73 74 71 70 73 77 79 85
29 33 38 42 45 43 40 41 45 48 49 51 53 56 60 62 66 69 70 71 73 74 73 74 75 76 75 85 83 87 90 95
32 38 42 46 44 41 46 47 50 51 53 55 58 63 67 70 72 74 76 76 77 78 82 83 84 85 85 88 92 96 98 101
36 42 45 45 44 47 50 51 51 54 57 61 65 69 71 73 75 78 79 79 83 84 86 89 92 94 96 96 98 102 108 108
42 45 45 46 50 52 53 52 55 59 64 67 70 71 73 75 77 78 82 86 90 95 98 101 101 103 105 107 109 114 119 120
44 46 48 51 53 53 54 57 60 64 69 71 72 75 76 78 82 86 90 94 97 99 100 104 107 109 113 117 121 123 126 123
44 47 51 51 53 56 60 63 66 67 69 71 75 79 82 87 91 94 97 101 104 107 110 112 116 120 125 128 129 130 126 122
47 49 50 54 58 61 65 68 69 72 74 80 84 89 93 96 98 102 106 108 111 115 118 120 125 131 134 135 134 131 127 117
50 54 58 62 64 66 69 74 76 80 84 87 92 98 102 105 107 110 115 118 121 125 129 131 136 140 139 135 131 123 112 105
58 62 63 65 67 71 74 77 82 87 91 93 97 101 105 107 111 116 121 124 128 132 137 141 142 136 133 126 117 110 107 104
60 65 68 71 72 75 79 82 86 90 94 98 101 107 110 113 119 121 126 131 138 141 141 137 129 124 119 112 109 106 102 95
64 68 72 74 76 79 84 90 94 98 101 104 108 114 119 122 127 132 137 141 142 137 130 123 117 112 110 107 104 98 91 85
69 71 73 76 79 85 90 96 101 106 109 112 115 120 125 131 135 138 139 137 129 123 116 110 109 109 107 101 95 88 82 77
70 73 77 81 86 91 98 102 107 111 115 120 123 129 132 135 135 131 126 119 114 110 108 106 103 98 93 89 84 81 77 71
75 78 83 88 93 98 103 109 113 118 124 127 127 132 133 131 125 121 115 111 108 106 105 101 95 88 82 81 75 73 69 66
80 85 89 95 101 106 110 117 123 129 132 135 134 129 121 117 116 112 108 105 106 104 98 91 85 80 74 71 66 65 63 61
85 93 99 104 110 116 120 126 131 134 130 124 118 115 114 112 109 106 105 105 100 94 88 82 76 72 66 64 63 60 57 55
94 99 105 110 116 122 127 132 135 128 119 115 111 110 109 107 104 104 101 95 89 84 78 72 68 63 60 60 58 56 53 49

GFSFLT1_250_spd_030.txt.gz
Wind_Speed
31 32 35 34 35 35 41 41 42 41 39 43 47 49 51 51 53 54 59 61 63 64 65 67 68 67 66 67 69 71 74 75
31 33 33 34 36 40 45 44 45 45 49 49 51 52 52 55 58 58 63 63 65 65 65 67 69 70 72 75 76 77 80 86
30 32 33 35 39 44 45 46 48 52 53 53 55 57 61 63 64 63 66 66 68 71 72 75 76 78 82 84 85 86 87 91
31 34 37 41 45 47 48 50 53 56 56 57 60 62 64 67 70 71 68 70 75 79 80 84 87 89 91 93 94 97 96 96
37 40 43 46 49 51 52 54 56 59 63 64 63 64 69 72 74 76 77 84 87 90 92 94 95 98 99 101 104 107 110 107
38 41 44 48 51 53 56 58 59 60 67 68 69 72 75 77 79 83 87 90 93 97 100 102 104 108 110 109 113 115 117 117
39 43 45 49 53 56 60 62 66 67 67 71 74 77 79 82 85 89 92 96 100 104 108 111 114 117 119 121 124 125 125 127
44 45 47 49 53 59 65 68 70 71 74 76 78 81 84 88 93 96 100 104 108 111 115 118 121 124 127 129 130 133 132 129
45 46 50 56 60 62 65 70 74 77 79 81 84 87 91 96 100 105 109 113 117 119 123 125 126 129 130 132 132 129 127 123
48 51 55 59 62 64 68 72 75 79 82 84 88 95 100 105 110 115 119 123 127 128 130 132 133 130 131 129 129 124 118 115
52 56 57 61 65 69 72 75 77 81 86 91 95 99 103 109 117 123 127 129 131 133 133 131 132 128 121 118 117 115 112 110
55 59 61 66 70 74 78 82 83 86 90 94 100 106 114 121 126 129 129 130 132 131 123 121 116 111 109 110 111 110 107 103
55 58 64 70 74 77 80 83 87 92 98 104 110 116 122 129 131 132 133 131 126 122 119 113 111 109 108 108 108 108 105 100
61 65 70 77 81 85 86 89 92 99 107 115 120 124 130 133 132 132 130 121 119 116 114 113 111 109 106 104 103 97 91 88
68 73 78 85 88 90 94 97 102 110 117 123 128 130 132 132 131 129 119 117 115 112 110 109 108 106 102 98 92 86 82 80
73 79 85 90 93 96 101 105 112 120 125 131 136 134 134 132 125 118 115 113 111 110 108 106 102 97 90 87 84 79 75 72
80 83 88 93 97 103 107 112 119 127 132 135 134 127 129 123 117 113 109 107 106 104 100 95 91 85 80 79 76 71 68 65
82 87 92 97 101 107 113 119 125 134 137 133 126 124 121 115 112 108 106 104 101 96 90 86 82 77 73 72 68 65 63 61
87 91 97 103 109 114 119 125 130 132 131 129 128 121 118 111 107 105 102 97 91 87 81 78 75 72 65 65 63 61 60 56

GFSFLT1_250_spd_033.txt.gz
Wind_Speed
32 37 39 39 36 29 27 28 33 34 41 50 54 54 57 58 57 58 58 59 62 65 67 67 69 66 64 72 74 74 76 76
35 35 35 33 35 32 35 38 41 47 51 54 56 58 59 61 62 62 62 64 65 67 70 70 71 72 76 78 79 81 83 88
34 30 30 34 39 41 43 47 51 52 55 56 59 63 64 63 64 63 66 68 70 71 73 75 77 79 82 87 90 90 92 97
31 29 31 35 40 44 47 52 54 56 56 61 65 65 66 68 71 72 73 73 74 76 78 81 84 87 91 95 98 101 102 105
39 38 37 39 43 48 50 53 57 59 60 63 65 67 71 73 75 77 78 81 83 85 88 92 94 97 101 106 108 111 113 113
42 42 44 46 48 51 55 57 55 56 64 67 69 73 76 77 78 80 83 87 91 94 98 103 107 110 113 116 116 119 119 118
40 42 45 49 53 57 59 59 61 62 61 65 72 77 81 82 84 86 90 94 97 103 107 111 116 121 124 125 125 124 119 118
39 42 45 51 55 56 58 63 66 67 70 74 77 79 82 85 88 91 96 101 105 110 114 119 128 130 130 131 132 129 126 121
41 43 47 50 53 56 59 64 66 70 74 79 84 87 91 93 96 100 104 109 112 118 125 130 134 133 133 132 128 123 117 112
42 45 49 54 57 58 60 63 70 77 81 85 90 95 96 100 104 110 114 119 122 128 133 134 134 128 124 119 115 112 111 110
48 50 54 58 60 61 64 68 74 81 87 91 95 100 103 109 114 119 124 128 131 134 132 129 122 118 114 111 109 109 108 106
51 56 59 59 61 62 67 74 79 84 91 95 100 104 108 116 122 127 131 133 135 132 124 119 115 113 111 108 105 103 102 100
54 58 60 62 65 69 73 79 85 89 94 99 103 107 113 120 127 130 131 133 128 119 118 117 114 110 106 103 100 97 94 90
56 57 61 64 69 74 79 86 91 95 100 105 111 115 119 127 131 132 127 121 121 120 119 116 110 105 102 99 94 89 83 81
56 60 64 69 73 80 86 91 95 99 105 113 120 124 126 128 128 131 132 128 125 119 115 110 105 100 95 91 87 82 77 73
63 68 71 75 81 87 93 97 103 109 113 120 127 131 131 133 136 133 124 122 114 109 106 102 97 91 84 81 78 75 72 69
65 69 74 81 87 92 98 103 108 115 120 125 131 133 128 128 122 113 111 108 104 100 96 91 86 81 77 75 73 70 67 65
69 74 81 86 92 97 103 107 114 122 127 132 130 128 130 118 109 100 95 95 93 90 85 82 78 74 71 69 68 66 65 63
76 83 88 93 98 104 110 116 123 127 131 130 129 130 119 114 107 98 94 91 86 82 78 75 73 69 67 65 65 63 61 58

GFSFLT1_250_spd_036.txt.gz
Wind_Speed
48 44 43 43 42 40 39 33 31 33 40 48 52 56 58 61 60 61 62 62 62 63 66 67 69 70 71 72 73 73 74 74
40 39 40 40 40 39 32 35 36 41 49 53 58 62 62 63 61 61 63 64 65 67 70 72 73 74 74 77 80 82 83 81
39 40 40 42 40 42 38 39 43 47 52 57 61 65 66 63 62 66 66 68 71 74 77 80 81 80 83 84 86 88 90 92
39 41 42 43 42 43 46 47 49 53 56 59 64 68 67 67 68 70 74 77 81 83 84 84 85 86 89 91 93 97 101 104
43 41 39 39 42 46 48 51 54 56 60 64 66 66 68 71 73 77 79 84 87 91 93 94 95 97 99 102 105 110 112 114
46 45 46 46 46 47 49 53 56 61 65 66 66 68 72 75 78 84 89 94 97 100 102 104 106 109 110 115 118 122 124 125
46 49 52 52 51 52 53 53 56 60 62 65 68 69 74 77 82 88 93 96 101 104 107 110 113 117 121 124 127 127 128 128
37 43 46 48 50 54 55 56 58 61 65 68 69 72 76 81 86 91 96 101 105 108 112 116 122 127 129 130 127 123 124 124
38 43 44 46 50 53 56 58 63 67 69 72 74 77 82 89 95 101 104 106 110 114 118 123 129 131 128 126 126 126 124 121
43 48 51 52 55 56 58 62 66 69 73 76 79 84 89 96 100 104 109 113 117 121 125 129 126 124 123 122 120 119 117 117
49 51 53 55 56 58 61 63 66 70 74 79 85 88 94 100 107 112 117 121 124 127 125 120 118 119 117 115 114 114 110 105
48 49 52 54 56 59 61 64 70 74 77 82 89 94 100 106 113 117 122 126 127 122 122 119 120 118 115 114 108 104 100 95
46 49 52 55 56 58 63 68 72 76 82 88 95 101 107 112 116 122 126 126 123 122 121 123 123 117 113 108 103 97 91 87
50 51 53 55 59 62 67 71 76 82 89 96 101 108 112 118 124 128 127 128 124 122 121 124 118 111 105 100 94 89 83 78
53 54 58 60 63 68 74 80 85 92 97 103 108 115 120 129 132 130 126 121 119 115 111 109 104 98 94 89 84 81 76 72
59 60 61 64 69 75 82 89 94 99 104 112 117 122 127 130 128 124 121 117 114 104 100 95 89 86 83 80 77 74 72 70
58 60 64 70 75 82 88 94 100 106 110 115 121 126 130 127 124 121 115 107 102 97 91 86 82 78 76 74 73 71 69 67
62 66 71 76 82 88 94 98 103 109 116 123 128 131 129 121 118 115 107 100 96 92 86 82 77 75 72 70 69 68 66 62
66 72 78 85 91 95 99 105 111 118 123 129 132 132 127 124 118 110 102 94 87 82 78 76 74 70 68 66 63 62 60 57

GFSFLT1_250_spd_039.txt.gz
Wind_Speed
65 63 55 53 53 51 43 38 39 41 54 57 61 56 58 55 59 65 67 68 69 70 69 69 69 70 71 73 74 76 76 76
46 46 45 47 49 48 31 37 43 47 54 59 57 61 64 66 67 68 70 71 73 73 71 74 74 75 77 79 81 83 85 87
39 42 45 46 44 48 50 52 56 58 60 62 63 64 67 69 72 73 74 76 74 74 76 77 79 81 85 88 90 91 93 94
38 41 45 48 50 53 54 54 57 58 58 60 65 68 70 71 73 74 75 76 78 79 82 83 85 88 91 95 98 101 103 103
42 44 47 50 53 53 55 55 54 55 57 61 64 65 66 67 70 73 76 79 82 85 87 89 91 96 100 103 108 112 112 112
45 46 48 48 51 50 46 50 52 56 58 60 63 66 69 72 75 80 83 86 89 91 94 97 102 106 110 115 118 119 120 122
36 38 42 43 44 44 44 50 54 57 60 63 66 69 72 76 80 83 85 89 92 95 100 105 109 114 117 121 124 126 127 126
41 42 46 48 49 49 50 55 58 62 65 67 69 72 76 78 80 83 88 93 96 101 106 110 115 120 122 125 128 129 128 125
47 49 51 54 55 56 58 60 62 64 66 69 72 75 77 80 85 90 94 99 103 107 112 117 120 121 122 122 123 122 122 123
45 49 53 55 57 58 59 61 63 65 67 69 71 74 79 85 89 95 101 105 110 114 116 117 120 120 119 116 117 118 119 117
47 48 49 51 54 57 59 61 62 63 65 69 73 77 82 89 96 101 106 111 114 118 119 120 118 117 115 113 115 117 115 111
47 49 51 53 54 56 59 61 64 66 68 73 79 86 91 96 102 106 112 117 121 122 123 124 125 119 117 119 117 112 108 103
48 51 53 55 57 58 60 62 64 68 74 81 87 92 98 103 108 115 120 124 126 129 129 128 124 119 115 111 108 103 99 94
52 54 56 56 57 59 61 64 68 74 81 87 94 100 105 111 116 120 126 131 132 131 125 119 118 111 107 102 96 91 87 82
56 56 56 56 57 60 64 70 75 83 90 96 102 107 112 118 123 126 129 127 123 120 115 110 105 100 96 91 86 82 78 75
59 58 58 59 62 67 72 78 86 93 98 103 106 112 120 125 126 124 119 117 113 111 107 100 96 91 87 83 79 76 73 70
60 60 61 64 68 74 80 87 93 100 104 107 112 122 125 127 123 122 120 114 111 107 100 93 89 85 81 77 74 72 69 67
62 64 67 71 76 81 88 94 101 105 111 115 119 125 125 126 125 123 116 112 105 98 92 87 83 78 74 71 69 68 67 64
66 70 74 78 83 89 95 102 105 110 116 124 127 125 126 127 123 120 114 108 99 92 85 80 76 73 70 68 66 64 62 60

GFSFLT1_250_spd_042.txt.gz
Wind_Speed
65 60 57 54 52 51 49 38 37 32 43 42 55 65 70 70 72 72 74 73 75 75 74 75 77 77 78 79 78 79 80 80
49 47 46 46 47 47 43 30 39 44 64 58 57 64 67 72 76 78 76 75 76 76 77 77 77 79 81 80 83 85 86 85
42 43 43 43 39 34 43 44 48 54 57 60 65 70 72 74 74 73 74 75 76 77 78 79 80 81 83 86 88 89 91 93
34 39 42 44 47 51 55 57 59 60 63 65 68 72 74 74 72 72 73 75 77 79 81 82 84 87 87 89 92 95 95 98
38 44 47 49 51 53 54 56 58 60 62 63 66 68 67 67 69 71 74 78 82 83 85 85 86 89 93 97 100 102 103 104
30 32 34 37 41 44 46 47 48 51 55 59 62 65 68 71 74 76 77 79 82 85 85 87 92 96 100 104 108 111 112 114
34 36 38 42 45 47 49 51 54 56 58 61 64 67 70 72 74 76 77 80 81 85 90 95 100 105 108 112 115 120 121 123
39 42 46 48 50 53 55 57 59 61 61 62 65 68 70 72 74 76 79 84 89 94 98 103 107 112 115 118 120 122 123 124
43 46 48 50 53 55 56 58 60 62 62 64 67 69 71 74 77 80 83 89 95 100 105 109 112 115 119 121 122 120 119 120
45 48 50 51 52 54 57 59 61 64 65 68 70 72 75 77 79 84 89 96 101 107 111 113 118 120 119 119 118 117 118 120
49 51 52 55 58 60 61 62 64 65 66 67 70 72 75 78 83 90 97 102 105 108 112 116 121 120 119 120 120 116 115 114
53 53 54 56 58 60 60 61 62 62 64 66 69 72 78 85 92 100 104 106 109 115 117 116 118 117 118 117 114 111 108 103
49 51 53 54 56 57 58 59 61 62 65 68 74 80 87 94 100 103 105 109 115 121 120 120 119 114 112 108 102 99 95 91
50 51 51 52 53 55 57 58 61 65 69 75 81 88 93 97 103 107 114 116 121 121 122 121 116 106 101 97 93 90 88 85
57 55 53 54 54 56 58 61 66 71 77 83 89 96 102 107 112 116 120 126 124 123 120 117 109 99 93 90 88 85 82 79
59 57 55 55 56 59 64 70 75 81 88 93 99 105 110 114 118 123 127 126 125 121 118 110 103 95 90 87 84 79 76 74
63 58 57 58 62 67 72 78 84 90 94 100 105 110 114 118 124 127 125 123 123 118 111 103 96 91 88 84 79 76 72 68
66 61 61 64 69 75 81 86 91 96 101 107 111 114 118 124 126 122 123 122 118 111 104 97 92 87 83 78 75 71 68 65
66 65 68 72 76 82 87 93 98 103 109 112 115 118 123 123 121 122 121 118 111 104 98 92 87 82 77 73 70 67 65 61

GFSFLT1_250_spd_045.txt.gz
Wind_Speed
63 64 67 62 56 55 58 49 43 36 38 41 50 53 54 60 59 65 69 76 81 84 87 85 87 86 84 81 80 79 79 80
53 50 51 54 51 48 45 43 28 29 52 57 62 61 65 66 73 73 78 81 84 87 87 88 86 81 79 80 82 83 85 85
48 44 45 43 43 45 47 48 40 44 54 61 63 64 63 70 75 80 83 84 84 82 79 79 81 82 83 83 85 87 89 90
40 40 41 43 42 43 43 42 44 48 52 54 55 57 61 64 68 71 74 75 76 79 81 81 82 83 85 86 87 87 87 90
34 31 34 34 35 38 41 42 44 46 51 54 57 60 63 67 69 72 73 75 77 78 79 80 82 83 84 85 89 93 97 101
26 30 34 37 39 42 44 46 49 51 54 56 59 60 61 63 65 68 70 72 74 76 79 80 81 83 87 93 99 104 107 110
30 34 37 41 43 46 48 51 53 56 59 60 62 63 64 65 68 70 71 72 74 75 76 80 86 92 97 103 107 108 111 113
34 38 42 45 47 50 52 54 56 58 60 61 62 63 65 67 68 67 68 71 75 79 84 90 96 101 105 105 106 107 111 116
38 41 44 48 52 55 57 58 59 61 62 63 64 65 66 67 66 68 72 77 82 88 94 99 103 107 107 109 109 114 114 116
39 42 46 49 51 54 56 58 59 60 62 63 63 63 64 67 70 74 79 84 90 94 101 104 106 107 110 111 112 115 115 115
40 43 45 49 53 54 56 57 57 58 59 60 62 64 66 71 75 80 86 91 95 99 102 105 109 113 111 112 114 116 111 107
43 46 52 56 57 55 55 55 57 58 58 58 60 64 69 74 80 86 92 96 99 101 104 108 109 109 112 114 112 109 104 98
45 50 55 57 57 55 55 56 56 56 58 60 66 72 78 83 89 94 101 100 101 105 107 108 113 116 116 112 107 100 95 90
48 52 57 57 56 53 53 54 55 58 62 70 75 79 88 93 98 102 102 103 106 108 114 116 117 117 113 105 97 91 88 84
55 57 60 61 59 56 57 59 62 66 71 77 81 88 96 99 106 104 106 108 109 113 115 116 115 111 104 96 90 87 83 78
60 62 64 64 66 63 63 66 69 73 79 83 89 97 102 109 110 110 111 111 114 115 113 112 108 103 96 91 86 83 79 75
66 67 68 68 71 70 70 71 76 80 85 91 97 104 109 115 114 115 114 114 115 113 109 106 101 95 92 87 82 78 75 73
71 73 72 74 78 79 76 78 82 87 91 97 103 108 116 117 117 112 115 114 113 109 104 101 95 91 87 82 78 75 73 70
76 75 75 79 82 83 81 83 88 92 98 104 110 116 118 117 114 114 115 111 108 105 102 97 91 87 82 78 75 73 69 66

GFSFLT1_250_spd_048.txt.gz
Wind_Speed
51 53 57 58 63 64 63 63 63 60 49 32 38 50 50 56 61 60 67 73 78 82 84 88 90 91 95 94 96 85 85 86
56 57 60 66 61 58 54 49 47 43 41 39 51 58 62 63 69 74 78 80 85 82 84 92 93 90 85 86 88 89 90 89
48 49 51 50 51 47 47 47 45 41 40 40 50 54 63 72 70 73 75 75 77 77 78 80 81 82 83 84 84 86 87 85
42 43 43 43 44 42 39 37 38 40 41 44 47 52 56 60 64 67 70 73 75 76 77 79 80 82 82 84 84 84 84 86
36 35 36 34 33 35 36 40 43 46 48 51 54 57 60 64 66 69 70 73 75 76 78 79 79 79 81 82 83 87 90 94
26 24 27 31 35 38 41 44 48 50 53 56 58 61 63 65 67 69 71 73 75 75 75 73 74 77 82 87 91 95 99 102
24 27 31 35 38 42 45 48 51 54 57 60 62 64 66 67 68 69 69 69 69 69 72 75 79 83 87 92 96 101 103 106
27 30 34 38 40 42 44 47 51 54 57 59 61 62 64 64 66 65 64 63 66 71 76 81 86 91 95 99 99 103 105 108
30 33 35 38 41 43 48 53 57 58 58 59 60 61 62 63 63 61 63 67 70 80 84 86 95 95 97 100 102 104 106 109
30 35 39 40 42 47 51 55 58 59 60 61 62 61 60 60 62 64 70 76 79 88 91 97 98 98 99 100 103 107 111 114
33 36 39 42 45 49 53 55 56 57 57 58 59 59 58 61 64 72 77 81 87 93 99 99 99 99 99 103 106 108 110 109
33 36 42 46 49 53 56 59 60 61 60 59 59 61 63 67 72 77 82 88 94 99 99 100 99 100 103 108 108 107 105 102
38 45 47 50 55 57 60 61 63 65 66 66 66 68 70 73 79 82 89 95 101 101 103 100 102 103 105 107 106 103 100 96
44 50 52 54 59 60 63 65 67 69 71 72 72 73 76 80 84 90 97 104 105 106 103 104 105 107 108 103 100 97 93 87
50 54 57 60 64 66 68 72 75 76 75 77 79 78 79 84 91 97 105 109 109 108 107 108 109 108 105 100 95 90 86 82
56 61 64 66 69 71 74 78 81 81 82 83 84 82 84 91 97 104 110 113 112 110 112 110 108 103 99 96 90 84 81 78
63 66 70 71 76 78 81 84 86 86 87 90 88 86 90 98 104 111 115 117 114 115 112 110 102 97 96 91 85 81 78 73
68 70 74 78 81 84 85 89 91 89 92 94 92 92 97 104 111 116 121 118 115 113 111 105 99 97 92 86 81 78 73 70
72 75 79 83 85 87 91 94 93 93 96 98 95 98 103 110 117 121 122 117 115 113 108 102 99 94 86 82 78 73 69 67

GFSFLT1_250_spd_051.txt.gz
Wind_Speed
35 38 44 51 51 56 60 61 64 66 72 70 65 61 58 58 62 61 66 66 70 74 77 81 84 88 93 96 98 94 88 85
47 51 50 52 55 60 63 65 67 63 58 55 53 53 54 59 62 64 68 76 82 84 83 85 91 85 87 90 88 87 87 87
48 51 52 54 59 62 60 56 53 51 49 45 44 45 49 53 55 59 66 75 76 76 77 77 80 82 80 82 85 86 85 81
53 56 58 62 58 53 47 45 41 39 41 44 46 50 53 57 60 63 67 70 73 76 78 80 81 82 82 78 73 73 78 81
48 48 48 44 42 37 35 36 38 41 44 47 51 55 58 62 65 68 70 74 75 77 77 77 76 73 70 70 75 81 84 88
40 38 34 32 31 32 35 38 42 44 48 51 55 59 63 65 68 69 70 71 71 72 71 68 64 68 73 78 82 89 93 98
27 27 26 27 31 34 38 40 43 46 50 54 57 60 61 63 65 66 67 66 66 65 64 66 69 74 80 84 90 97 100 103
21 22 25 29 32 37 40 42 44 48 51 54 56 58 59 59 61 63 63 64 64 64 68 70 76 79 85 92 98 100 102 104
21 23 25 30 35 36 39 41 44 46 50 53 56 57 59 62 63 63 65 68 70 71 73 77 81 86 92 99 103 103 102 101
21 25 27 32 32 38 42 42 44 46 51 54 58 62 64 66 67 68 68 69 72 74 76 80 88 93 100 104 104 103 103 104
25 28 33 35 38 44 45 46 49 54 58 62 65 69 71 73 74 73 74 76 75 77 80 87 93 99 105 108 106 104 106 108
32 34 37 39 43 48 51 55 58 61 65 69 72 76 77 79 77 77 78 80 81 82 87 94 99 105 111 109 107 107 109 112
37 40 43 47 50 55 59 63 66 69 72 76 77 81 84 86 81 81 84 85 85 88 93 101 106 112 112 109 110 110 110 106
42 46 49 54 57 61 64 68 72 75 78 82 84 87 90 88 83 87 90 90 91 96 103 108 114 115 112 111 109 107 103 99
47 51 56 59 64 65 69 73 76 79 82 86 89 92 94 90 90 93 96 94 98 104 109 115 119 114 112 111 107 97 96 95
52 56 61 65 69 71 75 78 81 84 89 91 95 96 96 93 94 98 98 99 106 111 116 119 115 111 112 106 100 96 92 88
56 60 63 69 73 76 79 83 85 90 92 95 99 98 97 96 100 100 101 105 112 117 121 118 115 111 109 97 95 93 86 81
59 64 69 74 77 81 83 86 91 93 96 100 101 98 98 101 102 103 107 112 117 120 119 117 114 108 102 97 91 86 81 76
63 70 74 77 80 83 86 91 94 97 101 103 99 99 102 103 104 107 114 117 120 121 115 115 109 102 101 96 87 80 76 72

GFSFLT1_250_spd_054.txt.gz
Wind_Speed
33 37 40 44 46 39 41 43 55 58 59 63 66 70 72 70 72 70 67 67 64 66 72 76 79 80 81 85 89 93 88 84
34 29 28 35 40 53 60 59 55 58 61 65 66 64 62 61 60 58 59 62 65 69 71 74 78 81 80 82 81 81 82 79
34 37 42 45 52 58 55 57 58 60 65 66 61 59 55 53 56 59 61 64 68 69 73 74 74 77 77 76 76 74 71 66
44 48 49 48 48 52 56 61 64 61 56 54 48 49 51 52 55 59 62 63 63 64 66 67 69 70 71 71 69 67 66 70
46 49 51 53 55 60 56 52 51 46 43 45 46 47 50 53 56 57 58 61 62 64 66 68 69 69 69 70 71 72 72 74
52 48 48 46 47 46 43 40 39 40 41 43 46 47 48 50 52 53 56 58 60 64 67 68 68 70 72 75 77 80 80 81
39 40 41 42 37 35 34 34 35 37 40 41 42 46 47 52 57 61 64 67 68 71 68 66 67 69 72 74 75 80 84 84
39 36 31 30 32 31 31 33 34 38 40 42 45 51 52 56 59 66 69 73 75 77 75 72 72 75 76 77 78 79 87 92
27 26 28 28 28 30 32 35 40 44 43 48 53 57 60 64 68 72 75 78 82 82 80 77 78 80 80 79 81 87 93 101
25 26 26 27 30 35 38 39 43 48 52 55 61 63 66 71 74 77 83 85 87 88 84 81 82 84 85 87 90 97 101 108
25 27 30 29 36 41 45 46 49 53 57 60 63 67 71 75 79 84 87 88 93 92 89 87 88 90 91 94 99 104 107 112
29 31 35 39 40 46 50 52 55 60 63 65 70 75 79 82 85 88 91 93 97 94 90 91 93 94 96 102 105 108 111 109
35 38 41 46 48 50 55 58 63 66 71 74 79 82 86 88 91 93 95 99 97 92 92 94 96 101 103 107 112 113 110 110
39 43 46 49 52 55 58 63 67 72 76 80 83 85 88 91 93 96 100 97 93 94 95 99 102 106 110 115 117 111 112 113
42 46 47 51 56 60 60 65 71 75 79 83 85 87 92 94 97 102 97 96 94 97 102 105 106 112 115 120 115 112 112 108
48 50 53 57 60 61 65 70 75 80 82 85 90 92 94 98 103 99 96 97 100 104 109 110 115 118 116 113 112 111 106 102
54 56 58 60 62 66 71 75 78 81 86 89 93 94 99 103 100 98 99 102 106 109 113 115 120 119 115 114 110 104 101 97
58 59 61 64 65 70 74 78 81 86 90 95 96 99 104 100 99 100 105 110 113 114 119 119 119 115 116 111 106 101 97 90
61 64 66 65 71 76 80 82 86 90 96 97 101 104 101 99 101 106 111 115 117 121 122 119 115 113 110 108 104 98 90 83

GFSFLT1_250_spd_057.txt.gz
Wind_Speed
24 28 34 38 43 39 38 41 52 55 52 53 58 62 65 69 70 73 74 75 67 67 67 70 70 71 71 73 73 73 73 73
25 31 36 40 41 39 43 51 52 53 54 56 59 60 63 65 65 66 63 63 61 62 64 64 65 64 64 67 70 71 71 68
34 36 36 44 42 40 43 46 55 62 62 64 61 61 61 63 61 59 59 59 57 56 55 55 59 62 65 67 69 70 72 72
31 33 32 38 45 50 48 51 54 56 58 58 59 58 57 55 54 54 52 49 49 51 56 60 64 66 70 72 73 74 74 75
36 36 39 43 45 50 54 51 53 53 56 55 53 50 49 50 49 46 48 50 53 57 61 64 69 73 76 78 80 80 78 75
46 44 45 46 49 50 51 51 51 50 50 48 46 46 44 43 42 47 51 54 58 61 66 71 76 79 82 84 86 84 79 78
43 44 45 43 43 43 46 46 46 44 43 45 44 43 45 45 48 53 56 58 60 63 70 74 77 82 85 88 89 82 77 79
37 39 41 41 42 41 40 39 39 41 41 41 44 48 50 53 57 61 64 68 71 75 78 83 86 89 94 93 85 81 79 82
38 39 40 36 35 36 36 35 39 44 45 46 49 54 56 59 63 64 68 75 80 83 86 89 92 96 97 89 86 86 90 92
34 31 33 34 35 37 38 37 42 49 51 52 56 60 63 67 72 75 78 81 83 87 90 92 96 97 92 89 92 95 98 103
29 31 32 34 37 40 41 42 46 52 57 60 63 65 68 72 77 80 82 84 88 91 93 97 98 92 91 93 99 104 105 105
31 32 33 35 37 42 48 49 51 53 56 60 64 67 71 75 79 80 84 86 92 94 98 99 93 92 96 100 105 107 108 110
35 34 35 36 39 43 46 48 53 57 59 62 66 70 75 78 79 84 87 92 94 99 99 92 93 96 102 106 109 110 113 113
37 38 39 42 44 49 53 55 58 61 64 68 71 75 78 82 86 89 93 95 100 101 94 94 99 101 107 111 113 116 116 112
39 41 43 45 50 53 57 60 62 64 68 72 74 78 82 87 91 93 97 102 102 97 96 101 106 108 112 114 116 114 111 111
44 46 49 52 55 58 60 62 67 69 72 75 79 82 87 92 95 98 102 106 101 98 101 106 110 114 116 117 113 112 111 108
50 53 54 57 60 63 65 68 71 74 78 81 84 88 92 95 98 102 108 106 101 102 107 110 115 117 119 117 116 114 112 108
53 56 58 61 63 67 69 70 72 77 82 86 90 93 95 98 101 106 109 105 105 108 111 116 117 119 118 118 114 111 108 105
58 59 61 63 65 68 70 73 77 81 86 90 95 96 97 101 104 110 108 107 109 113 117 117 117 118 115 113 110 107 104 100

GFSFLT1_250_spd_060.txt.gz
Wind_Speed
37 40 48 49 44 44 44 43 52 50 51 46 52 57 59 62 62 66 68 68 68 69 69 68 64 63 62 61 60 61 63 67
38 41 43 49 47 41 42 44 46 52 56 56 57 58 59 61 69 72 69 70 68 66 62 63 62 60 58 58 62 66 71 72
39 42 42 36 39 40 44 46 50 50 50 49 54 61 62 63 62 62 64 63 60 58 58 58 58 58 61 64 67 71 75 78
43 40 37 34 37 37 39 41 44 50 53 53 54 56 56 55 55 57 58 56 57 58 57 59 62 64 67 69 72 75 79 83
35 39 37 37 38 42 44 48 51 53 51 51 51 55 54 53 56 57 54 55 56 58 62 64 67 70 73 75 77 80 84 89
31 37 40 40 40 39 40 38 50 50 51 51 51 50 52 53 53 55 56 57 59 63 67 71 73 75 77 79 84 87 89 92
34 41 45 48 43 41 41 46 45 46 48 48 48 50 52 53 54 55 57 60 63 66 69 72 76 76 78 83 87 89 92 93
44 45 41 35 34 44 44 44 44 45 46 47 50 51 53 56 57 60 62 65 67 71 76 74 73 78 81 85 89 93 93 84
42 39 35 38 39 40 39 39 43 46 48 49 52 54 57 60 63 65 69 71 73 73 74 77 81 83 86 91 94 92 87 87
35 38 37 36 34 35 40 42 44 46 48 51 53 55 59 62 65 69 70 70 73 75 79 84 87 90 94 97 98 94 91 93
36 37 35 34 34 37 40 41 43 46 49 51 53 57 60 63 67 71 73 74 77 81 85 89 91 94 98 101 99 94 96 99
32 32 36 38 40 41 41 43 45 48 52 56 60 63 66 68 73 74 75 79 82 85 89 92 95 99 102 105 100 98 100 106
29 34 37 39 40 42 44 46 49 53 56 59 61 64 67 72 72 74 77 81 85 88 91 94 99 102 105 102 100 103 107 110
30 35 37 38 41 44 47 51 54 56 59 62 65 67 69 69 74 77 81 85 89 91 92 98 104 106 105 102 106 109 109 110
35 39 39 41 44 48 51 54 56 59 62 65 67 68 72 76 79 83 88 91 93 94 99 105 107 109 106 108 114 113 110 111
38 41 43 46 48 51 55 56 59 61 65 67 70 74 78 81 86 90 93 97 98 100 107 107 106 106 108 112 112 108 109 112
44 46 48 51 54 55 57 60 62 66 69 72 76 80 84 87 91 94 97 100 101 109 110 109 107 111 114 113 112 112 112 112
46 49 52 53 54 56 59 63 66 70 74 79 83 86 89 92 97 100 101 104 109 114 113 108 111 116 117 117 117 115 114 113
46 48 50 52 56 59 63 67 71 75 80 84 89 92 94 98 102 104 104 109 114 117 112 114 117 120 120 119 117 114 113 110

GFSFLT1_250_spd_063.txt.gz
Wind_Speed
44 42 42 42 40 38 44 48 50 57 57 53 53 55 57 60 65 66 69 71 69 71 73 74 72 68 70 72 70 68 68 69
40 38 36 34 40 39 43 50 59 57 59 59 58 57 61 61 64 63 62 66 69 70 69 69 66 68 68 67 67 69 72 74
35 36 45 43 45 47 50 53 54 52 50 52 54 58 55 53 56 62 65 62 64 65 65 66 67 66 65 67 69 74 77 80
45 44 42 39 42 43 48 47 44 46 48 47 50 49 52 57 60 59 58 59 62 62 64 68 68 67 68 70 73 77 80 78
43 42 44 46 45 46 40 42 43 47 50 54 52 52 53 56 57 57 57 59 62 64 69 70 69 69 72 76 79 80 78 80
34 38 39 35 38 39 38 43 48 46 46 46 48 49 50 51 54 55 58 62 65 69 72 74 74 75 77 76 76 77 80 84
30 28 30 33 34 39 46 47 50 52 48 47 47 47 49 52 55 58 63 65 69 71 71 72 73 75 75 75 79 81 84 87
33 37 40 39 44 48 45 44 47 45 48 46 44 46 50 55 58 62 65 64 64 66 70 72 74 72 76 79 82 84 86 88
42 44 45 45 44 45 46 45 47 49 44 42 45 50 53 57 58 59 61 66 68 71 73 73 72 76 79 82 84 87 90 93
42 39 40 41 38 40 45 47 45 40 42 46 50 53 56 57 59 62 65 66 70 70 70 72 76 79 82 85 88 91 94 101
37 36 36 35 39 42 41 38 41 45 49 51 53 54 55 58 61 64 68 69 65 69 73 77 80 83 88 92 95 97 101 106
36 37 36 36 36 35 37 41 46 49 51 50 52 54 57 59 63 65 66 69 73 77 80 82 86 91 95 98 100 103 107 111
39 39 35 33 35 38 41 44 47 48 49 52 55 58 60 63 67 71 71 74 78 83 85 88 93 97 100 100 103 109 111 106
38 34 31 33 39 42 44 46 48 50 53 56 58 60 63 66 68 70 75 79 83 84 88 95 99 101 101 105 111 108 105 110
27 27 32 38 41 44 47 50 53 57 58 59 62 65 68 70 73 78 81 83 84 90 96 100 101 102 106 112 106 111 112 113
29 32 36 39 43 47 49 53 56 58 60 62 65 69 71 75 79 83 83 85 91 97 100 102 103 108 111 108 113 113 114 115
36 38 40 43 46 50 51 55 58 61 63 66 69 73 76 79 82 84 87 93 98 101 104 104 109 110 109 112 113 116 117 115
39 42 45 47 49 52 55 57 60 63 66 70 73 76 80 82 85 89 94 98 102 105 106 110 110 110 113 114 116 117 116 117
40 42 45 47 51 54 56 59 62 66 69 72 76 80 84 87 90 95 98 102 106 108 111 112 111 116 115 116 116 117 118 118

GFSFLT1_250_spd_066.txt.gz
Wind_Speed
38 36 27 32 32 34 33 37 40 48 43 41 44 45 57 68 67 65 62 65 68 71 72 70 71 74 73 74 73 71 72 74
30 33 32 27 29 33 37 36 37 39 44 48 46 53 60 63 65 65 67 70 70 69 68 69 72 69 70 70 70 72 74 77
33 33 31 32 35 36 33 38 41 41 47 54 58 64 61 63 63 62 64 64 66 68 67 66 67 66 67 70 71 74 78 79
25 27 33 36 35 40 42 44 44 47 50 54 59 60 63 56 57 58 61 60 60 63 61 62 63 66 71 73 78 79 77 77
34 33 32 37 43 44 43 43 46 50 49 52 53 54 52 54 55 55 57 57 58 58 58 63 67 71 74 74 72 74 78 77
44 43 46 46 44 44 48 45 44 46 43 44 50 54 56 49 53 59 59 57 56 59 62 66 71 71 72 75 76 76 75 77
44 45 47 50 54 43 43 43 40 42 44 49 56 59 54 55 57 55 55 56 60 63 66 69 70 73 74 74 73 73 77 80
32 31 31 30 35 39 42 43 43 50 50 53 53 52 53 57 54 54 58 61 64 68 71 71 73 73 72 70 73 77 81 83
35 38 37 38 42 44 48 49 50 45 43 42 44 53 54 50 54 58 62 66 69 70 71 72 72 67 71 76 79 82 84 90
43 42 44 48 49 53 49 40 41 43 45 48 51 50 50 54 57 61 65 67 68 71 71 72 71 76 78 81 81 85 90 95
38 40 41 42 44 46 45 43 45 47 48 50 48 48 52 56 60 61 64 67 69 70 71 74 78 82 83 83 88 91 96 102
40 41 39 39 39 41 42 46 47 46 44 45 48 51 54 57 61 64 66 67 68 71 77 81 83 85 85 90 93 98 103 107
36 38 38 38 37 36 42 43 40 40 44 47 51 53 56 60 62 65 64 69 72 76 79 82 85 87 91 95 98 104 108 109
37 37 34 33 31 30 37 38 40 44 46 50 53 56 58 60 64 67 71 74 76 79 81 83 86 91 95 98 104 108 109 112
38 38 32 26 26 30 37 41 43 47 51 56 58 59 62 63 66 70 73 75 79 82 83 87 92 97 99 102 107 111 112 113
35 32 29 29 30 35 41 44 47 52 55 58 62 64 65 68 71 73 74 78 81 85 89 94 98 101 101 106 112 113 114 115
33 33 32 31 34 38 43 47 50 54 58 61 65 68 71 73 74 76 79 81 85 90 94 99 103 103 105 113 113 114 115 119
35 36 37 39 43 45 49 52 55 59 62 65 68 72 74 75 78 80 82 86 91 95 99 102 105 106 112 115 116 115 118 119
37 40 42 45 48 51 53 56 60 63 66 69 71 73 75 78 81 83 87 92 96 100 103 105 106 112 115 118 117 118 120 120

GFSFLT1_250_spd_069.txt.gz
Wind_Speed
25 24 25 33 36 35 40 45 52 54 56 57 59 50 53 58 57 55 56 60 64 66 68 75 74 74 73 73 75 74 72 69
32 32 31 33 29 36 38 37 41 43 48 50 48 45 43 54 52 55 58 62 66 68 67 68 68 70 71 72 72 70 66 67
33 33 36 33 34 33 37 36 36 37 42 41 44 42 45 46 53 59 64 70 69 71 69 66 64 68 69 67 65 65 67 71
29 29 35 34 35 34 33 35 35 35 34 39 41 48 54 55 59 66 67 66 62 64 64 63 68 66 66 64 66 69 72 75
33 28 26 28 31 31 32 34 36 39 43 48 50 56 57 60 62 62 58 59 60 60 63 65 65 64 63 66 70 73 77 80
34 33 33 34 39 40 36 42 43 45 50 50 51 51 55 47 47 53 58 61 59 62 64 63 63 64 66 71 75 78 78 78
44 40 39 41 43 45 47 46 42 44 44 45 46 44 49 53 54 57 57 56 60 64 63 63 65 68 73 74 76 77 75 76
41 47 44 45 43 44 45 46 42 37 40 44 46 50 49 52 52 54 55 60 63 62 64 67 70 73 75 76 74 75 76 81
25 26 34 39 38 42 42 44 42 43 46 49 51 51 49 53 53 53 57 60 62 65 67 70 74 76 76 76 75 78 82 84
32 33 34 36 39 44 46 48 48 49 51 53 48 48 52 54 55 54 56 60 65 66 69 73 76 78 77 76 80 84 86 87
30 34 37 40 42 44 44 46 47 46 43 44 47 51 55 55 53 53 58 63 67 69 71 75 75 76 77 81 84 86 89 92
35 37 40 43 44 44 44 44 41 41 42 45 48 51 51 48 53 57 61 66 69 72 73 74 75 77 81 84 87 90 94 98
41 42 42 41 39 37 40 41 39 42 47 48 48 50 49 51 54 59 63 69 72 73 74 77 80 84 86 89 91 95 98 102
37 39 39 39 40 39 41 42 38 42 44 48 52 52 51 55 57 64 67 69 71 75 78 81 85 88 91 92 95 99 102 107
42 43 38 38 39 40 42 36 38 42 49 53 53 54 56 61 62 68 67 72 74 77 81 85 88 91 92 94 98 101 107 109
38 39 38 39 38 37 34 37 43 48 52 53 55 57 59 61 63 72 73 76 81 84 85 87 91 92 93 97 101 106 109 111
35 36 37 38 36 33 37 43 49 51 53 55 58 60 63 65 69 75 79 82 84 86 88 90 91 94 97 101 105 109 111 116
35 35 36 38 38 41 43 47 50 53 56 58 61 64 67 71 74 77 79 84 87 89 89 91 94 98 101 105 109 112 114 118
37 37 39 42 44 47 49 51 54 57 60 62 65 68 71 73 77 80 82 85 86 88 91 94 98 103 106 109 114 117 117 120

GFSFLT1_250_spd_072.txt.gz
Wind_Speed
30 29 43 47 44 42 38 39 46 47 50 51 52 56 60 59 59 60 63 62 63 64 63 61 63 65 67 68 72 74 72 72
34 35 39 45 47 43 35 36 50 49 48 50 54 56 62 61 61 67 66 65 57 55 61 63 65 71 73 74 76 75 71 76
35 30 27 33 41 40 39 38 41 45 49 51 56 62 59 56 58 58 58 54 55 56 63 68 75 73 70 70 69 72 72 73
23 29 34 32 32 39 41 41 42 43 44 46 46 46 47 47 47 50 53 56 58 66 71 70 70 66 69 70 71 72 71 71
23 25 30 38 38 37 34 42 44 41 47 48 45 43 45 46 51 56 58 60 63 65 63 63 64 67 71 69 72 72 73 73
30 32 28 28 37 42 38 41 41 39 35 38 42 44 52 55 59 62 63 61 60 60 63 67 64 68 65 72 72 72 74 78
36 36 36 33 35 35 36 37 42 40 43 46 48 50 52 56 56 58 61 57 59 62 62 63 64 67 71 72 72 75 77 80
37 41 39 41 39 41 44 43 46 49 51 55 54 51 49 48 53 55 62 61 61 60 60 65 67 69 70 72 76 78 81 82
22 27 37 37 41 43 44 45 45 43 43 46 49 50 52 56 58 63 60 60 59 59 64 70 69 69 71 77 80 81 81 83
31 31 32 32 32 35 39 41 44 46 47 52 56 57 58 59 60 59 58 58 62 67 69 70 70 72 76 79 81 83 83 84
27 29 32 37 40 41 41 43 46 48 49 50 52 54 55 56 56 59 60 61 65 66 68 69 73 76 79 79 81 83 86 87
31 33 34 37 38 39 41 44 46 49 50 49 50 50 50 54 58 61 62 62 64 64 68 72 75 78 82 84 84 86 88 92
33 35 37 39 39 39 41 41 42 44 46 47 49 49 52 56 63 65 63 59 61 65 71 76 79 77 80 84 88 92 94 96
33 34 36 37 37 39 42 44 46 46 47 48 46 48 53 58 62 62 61 64 68 70 75 81 82 83 85 89 93 95 96 99
35 38 41 42 41 42 43 44 44 45 43 41 45 52 55 57 60 64 66 69 71 74 76 80 87 89 91 94 95 96 100 103
39 39 42 44 44 41 41 44 39 37 40 44 52 55 55 58 63 66 69 74 77 77 81 84 87 91 93 94 97 100 103 105
42 42 43 44 44 42 40 40 38 39 45 50 54 57 59 62 66 70 74 75 78 82 84 87 90 93 96 98 102 104 105 107
44 46 47 47 46 44 40 43 43 47 49 53 56 60 63 66 68 71 74 76 80 83 86 89 92 96 98 101 105 105 106 113
45 48 50 50 49 48 47 49 51 54 55 57 60 63 66 68 70 73 76 79 82 86 89 92 95 99 102 105 107 107 112 117

GFSFLT1_250_spd_075.txt.gz
Wind_Speed
35 33 34 38 41 50 44 45 48 46 48 47 49 51 52 49 52 52 57 58 59 64 67 68 72 74 79 72 66 69 73 80
28 31 38 40 42 48 52 50 47 44 44 53 49 46 50 52 55 60 63 66 66 64 67 71 77 71 69 68 69 74 80 80
32 34 32 38 44 47 48 40 48 46 46 54 51 54 54 52 52 59 64 68 70 68 71 74 62 62 64 68 73 77 76 79
34 37 36 37 42 49 49 41 39 46 50 47 51 54 53 54 58 61 65 69 70 64 61 60 61 65 70 74 75 74 74 78
28 32 38 33 41 49 54 47 46 43 41 44 45 53 54 57 56 58 58 58 58 57 60 62 68 69 73 74 75 76 76 76
28 28 35 31 34 40 46 50 50 51 53 54 54 52 53 55 58 60 59 59 64 64 64 67 69 68 68 72 76 75 72 75
34 36 32 28 30 29 34 42 41 45 47 48 52 53 52 48 51 54 59 62 68 69 69 68 66 71 74 75 73 72 75 80
37 38 37 39 37 37 37 38 39 40 40 41 43 48 52 56 57 62 65 63 62 64 67 70 72 76 74 70 71 74 80 85
41 38 40 41 42 43 44 43 44 45 49 51 51 53 57 60 60 57 59 61 64 68 71 72 72 71 71 73 76 81 83 82
23 25 28 30 34 38 46 51 52 53 51 51 51 50 52 55 57 61 64 66 69 68 69 69 67 69 76 79 80 78 81 85
28 33 36 38 39 39 40 41 42 43 46 49 53 54 56 60 62 61 63 65 66 68 68 69 70 73 75 76 78 81 86 88
29 31 33 35 37 38 40 42 43 45 47 50 53 55 58 61 61 59 59 62 66 70 72 70 70 73 74 75 82 85 88 91
33 37 37 38 40 41 43 45 45 47 48 50 50 52 55 57 57 58 60 65 69 74 74 70 70 72 77 79 84 87 90 93
31 31 32 35 37 37 38 40 41 42 44 50 52 55 58 58 58 60 62 64 68 71 70 75 75 79 83 85 88 90 93 96
37 36 38 40 39 40 40 41 41 43 46 51 54 56 57 57 57 60 61 62 65 69 71 77 81 83 86 91 93 94 96 99
39 40 40 41 43 43 43 44 44 45 44 48 49 50 49 51 54 57 60 64 68 71 75 79 83 88 89 91 93 96 99 101
31 38 40 42 43 45 46 46 46 47 46 46 47 51 52 50 56 60 65 68 72 76 80 83 85 87 90 93 96 98 102 105
28 28 34 42 45 47 50 50 51 51 49 47 51 54 57 59 61 64 67 71 74 78 81 84 87 90 93 96 99 102 105 110
36 35 35 36 36 42 51 53 53 55 55 56 57 59 62 65 67 69 72 76 80 83 86 88 91 94 97 101 104 106 108 111

GFSFLT1_250_spd_078.txt.gz
Wind_Speed
35 40 46 51 42 53 53 50 51 54 53 59 63 56 53 53 52 55 57 51 52 50 53 55 52 56 62 67 71 76 78 78
33 37 39 38 37 40 43 47 48 51 57 56 60 51 50 47 49 48 47 50 52 54 59 59 64 67 68 75 77 80 81 75
31 35 34 36 37 39 44 48 44 42 48 54 53 46 46 40 40 44 50 57 57 59 58 62 67 71 77 79 78 75 71 74
30 35 36 40 40 41 43 53 51 44 46 50 52 46 48 51 54 56 56 59 61 64 65 67 68 68 71 69 66 70 72 74
33 33 32 34 32 37 43 48 54 55 46 39 46 51 57 59 57 58 61 60 63 66 71 70 67 63 66 67 72 74 78 77
28 35 34 39 38 39 41 40 50 53 47 47 49 47 49 54 58 58 63 65 64 62 63 61 63 66 69 74 76 77 78 77
31 28 27 33 40 37 34 37 43 49 52 51 50 54 56 56 58 60 62 64 65 63 66 68 67 69 74 76 76 78 80 80
31 35 39 38 34 38 35 34 32 41 48 51 54 52 55 55 54 55 58 59 61 64 67 71 72 71 75 77 78 81 79 79
33 35 36 40 46 43 40 41 42 42 42 45 47 49 50 51 54 58 59 61 66 70 71 68 69 74 78 76 77 78 79 80
27 40 35 34 39 44 44 44 43 48 48 51 50 52 55 56 59 65 65 63 64 66 69 71 73 76 79 78 78 78 80 81
25 25 27 28 34 34 36 37 40 42 44 49 52 55 59 57 60 63 65 66 68 70 71 74 77 77 78 76 79 80 81 83
27 28 29 31 31 37 40 42 43 44 46 49 53 53 54 58 60 62 63 67 68 70 70 71 72 78 78 79 79 80 77 78
32 32 34 37 37 40 43 44 43 44 47 51 54 51 52 58 59 61 63 62 65 68 70 73 76 78 76 77 77 80 82 87
34 37 36 34 34 33 34 34 36 34 36 41 46 41 51 55 59 60 61 63 65 67 68 69 69 71 73 75 80 83 87 91
23 28 35 40 41 41 39 37 36 39 37 42 41 43 50 53 61 61 62 60 60 60 60 63 68 71 74 77 80 86 92 95
25 24 25 29 33 38 42 42 43 40 44 40 43 48 54 56 57 56 54 52 52 58 62 66 70 73 77 83 87 90 94 97
26 26 25 27 29 30 31 34 38 42 41 46 51 56 58 61 61 60 60 61 62 64 68 70 73 77 80 86 90 93 96 99
30 31 31 28 33 33 34 35 35 39 40 44 51 55 58 58 60 62 63 66 69 72 75 78 80 83 86 90 94 97 99 102
38 39 41 46 39 38 37 38 40 42 45 46 47 48 50 54 57 61 64 67 69 72 75 77 79 82 86 91 96 98 99 102

GFSFLT1_250_spd_081.txt.gz
Wind_Speed
65 68 62 67 65 62 60 61 63 67 65 60 55 58 59 60 61 60 56 57 56 55 59 55 57 55 57 57 58 60 57 61
63 61 58 63 65 65 61 61 65 71 67 65 70 64 65 62 61 64 63 62 64 66 66 60 59 60 61 64 65 66 66 69
56 57 61 65 66 65 67 67 62 69 72 70 70 65 65 62 62 64 67 66 64 60 58 54 56 60 60 62 64 69 73 74
45 52 47 46 58 68 73 68 66 67 65 66 62 60 60 64 63 65 66 69 69 68 62 57 60 64 67 70 71 72 72 72
40 42 41 41 44 47 51 56 59 56 59 60 61 59 58 56 59 61 65 63 58 59 63 65 67 70 69 68 71 69 71 72
37 33 35 37 43 44 46 47 47 48 53 56 56 50 41 41 47 50 54 56 58 60 61 63 64 64 68 72 70 75 76 78
28 40 37 35 34 34 35 37 41 48 51 52 57 63 60 58 58 53 54 55 58 59 62 66 67 69 70 75 79 79 79 84
27 28 37 36 36 37 40 40 43 42 42 44 46 49 54 61 59 60 63 64 66 67 68 71 71 70 72 74 78 79 81 81
31 34 31 33 36 33 34 35 38 43 41 40 41 42 47 53 58 58 60 65 66 64 65 67 70 73 74 75 76 79 82 84
19 33 35 32 37 36 40 42 43 43 47 47 50 52 52 53 55 56 59 64 67 69 68 71 73 72 73 77 80 82 84 84
18 21 23 26 31 36 35 38 40 43 47 53 52 50 50 51 55 58 60 64 66 70 72 70 73 73 72 74 79 79 81 85
16 20 25 25 26 29 32 33 36 38 40 44 49 49 46 46 54 54 59 62 66 69 70 69 68 68 70 71 79 82 84 85
17 20 20 28 31 33 37 37 40 42 43 43 49 45 43 40 49 53 56 58 65 68 67 65 67 68 74 74 75 77 79 79
20 17 16 18 29 34 37 35 37 40 40 41 46 48 44 33 39 50 54 62 68 66 63 68 69 67 66 66 69 73 77 81
15 18 20 22 17 20 25 33 36 39 45 47 47 44 40 40 48 56 65 67 69 63 68 69 65 66 68 72 75 77 80 85
15 14 18 20 21 19 22 25 26 29 32 34 35 38 36 50 56 66 68 72 71 72 69 68 70 69 71 75 78 82 86 89
21 19 16 25 26 20 19 23 22 25 32 36 39 41 47 53 64 71 70 66 68 65 63 64 67 70 73 75 78 80 84 88
30 27 28 27 31 29 30 32 32 33 30 33 39 43 44 47 49 50 50 46 49 53 55 57 61 67 72 76 81 83 85 86
30 31 34 34 33 36 36 38 39 41 43 47 48 48 49 49 47 48 48 50 52 54 57 63 68 70 69 74 78 80 82 83

GFSFLT1_250_spd_084.txt.gz
Wind_Speed
51 61 61 66 69 67 72 73 76 72 62 59 59 65 66 68 66 62 60 60 61 60 62 63 62 62 62 63 63 64 65 68
52 54 66 65 68 73 76 74 78 82 79 73 70 70 69 58 57 60 64 62 65 67 68 66 68 69 69 68 71 73 74 71
61 56 61 68 69 61 73 69 74 72 77 76 70 63 67 71 70 66 67 67 67 66 65 69 70 72 74 73 74 74 70 69
49 59 64 68 72 64 61 62 70 72 71 66 65 64 63 67 70 67 67 65 68 68 73 70 72 73 71 69 68 70 68 68
32 33 48 73 70 67 61 62 64 69 67 64 66 67 63 64 68 67 62 63 68 66 60 61 61 63 63 63 66 68 72 72
28 33 39 59 62 62 60 61 64 68 70 68 68 63 63 61 61 58 55 52 52 53 58 60 64 65 64 69 72 70 71 69
24 30 38 49 56 56 58 57 53 50 51 52 53 55 54 56 60 59 56 57 56 58 62 63 64 67 68 71 72 74 74 76
22 31 33 40 45 50 49 47 46 47 49 52 55 57 58 55 57 61 60 58 61 66 71 74 77 75 78 78 76 75 75 77
20 26 29 36 40 41 39 39 41 42 45 45 48 50 50 53 52 50 51 52 56 62 65 69 73 73 72 75 76 76 76 78
12 15 26 28 27 34 40 44 42 39 41 47 49 49 50 53 51 51 54 58 61 62 67 73 74 74 74 74 74 75 77 78
18 15 16 20 25 31 35 37 39 44 47 48 49 49 50 52 56 62 62 55 58 62 65 69 72 72 70 71 71 71 73 72
15 17 18 20 20 24 25 30 33 35 38 44 47 48 45 45 46 49 47 48 52 55 61 68 73 74 70 68 70 71 72 77
6 13 17 17 19 23 26 27 32 35 38 39 40 40 39 38 38 38 41 42 45 52 66 69 71 70 69 73 72 75 79 80
5 5 9 13 15 18 23 29 33 37 42 41 41 42 39 36 35 37 36 37 54 69 67 71 74 73 74 79 83 83 86 85
14 6 6 11 13 14 18 20 20 21 26 29 30 30 30 27 23 26 33 58 62 71 78 80 81 80 83 87 91 88 86 80
18 18 13 11 11 12 17 20 17 20 20 22 24 26 23 25 25 44 50 61 64 66 73 77 78 80 82 84 72 69 69 72
16 21 25 29 24 17 16 16 20 23 21 26 30 36 40 44 49 48 55 65 73 75 76 73 73 72 71 71 69 68 69 73
21 22 27 31 34 30 27 27 28 24 27 27 32 36 36 37 39 42 45 50 53 57 60 62 63 64 66 68 71 71 73 73
30 26 28 31 34 37 37 34 33 32 32 39 44 45 48 50 52 51 53 55 56 57 58 59 61 63 66 70 73 76 78 79

GFSFLT1_250_spd_087.txt.gz
Wind_Speed
73 70 64 64 55 51 57 59 54 53 61 50 60 57 58 53 49 46 47 45 50 51 55 57 61 59 62 63 64 62 64 67
67 76 66 69 63 58 59 63 58 62 61 60 57 54 54 53 51 56 58 64 67 69 66 63 60 62 61 63 66 67 67 68
65 74 78 75 68 64 57 68 64 61 67 71 67 68 64 63 59 63 66 69 71 67 69 71 66 62 60 64 61 57 61 65
54 63 74 73 72 78 66 71 67 65 66 70 72 74 74 74 73 70 70 71 66 66 64 63 66 67 58 60 62 64 69 68
44 46 64 65 64 66 76 72 71 75 73 72 77 77 75 77 76 75 74 71 70 70 71 62 68 64 57 61 64 60 60 62
41 42 55 59 61 63 59 72 76 72 80 75 76 71 72 72 73 71 71 69 71 74 66 63 60 64 62 63 61 62 66 66
26 30 35 42 53 58 58 66 69 73 70 69 67 70 69 69 75 74 70 72 65 62 60 56 59 63 61 65 66 70 71 73
19 23 30 36 39 39 44 52 64 66 68 65 71 65 69 66 65 67 63 57 56 56 54 58 61 62 65 67 70 71 72 73
14 16 24 28 31 32 37 39 42 51 58 56 56 59 59 60 59 53 52 52 54 57 61 60 61 65 70 73 71 71 71 69
13 13 13 21 30 32 33 36 39 41 44 49 47 49 53 57 55 54 55 53 52 55 58 63 68 75 78 74 72 69 68 66
10 12 14 16 18 29 34 35 38 43 47 48 48 50 50 51 52 53 52 52 54 56 60 61 61 65 68 70 66 64 67 71
8 6 12 19 21 20 22 26 31 36 40 43 43 43 44 45 48 50 51 50 48 49 49 52 58 64 48 76 71 76 81 81
13 8 5 9 14 19 21 25 27 30 31 32 31 34 37 38 40 42 42 42 35 32 41 39 38 48 70 75 81 82 84 90
15 16 11 7 5 6 9 13 19 24 28 31 31 32 35 40 40 41 39 34 16 34 47 37 56 69 73 77 81 86 90 88
12 17 17 16 11 10 10 13 16 19 21 25 26 29 30 29 27 23 16 21 30 41 46 50 61 71 76 82 85 90 93 93
14 13 18 21 19 17 17 17 15 17 18 20 22 24 23 26 29 29 27 29 38 47 52 61 72 80 81 83 88 91 91 86
21 14 19 20 22 22 21 23 23 22 22 23 21 23 19 25 26 24 24 28 40 51 63 70 75 79 82 80 78 77 76 76
28 24 22 24 24 24 24 25 26 27 28 30 28 27 29 35 35 36 38 41 42 45 48 51 53 56 61 65 68 70 73 72
32 33 31 29 28 27 28 30 32 34 35 33 35 37 40 41 43 45 48 50 54 55 54 55 58 61 64 66 69 71 74 75

GFSFLT1_250_spd_090.txt.gz
Wind_Speed
54 53 50 52 48 43 41 33 38 39 42 41 46 50 54 54 59 58 55 52 49 46 47 44 47 53 58 61 62 59 58 56
56 59 58 52 57 51 48 42 38 43 40 48 48 55 56 55 53 43 39 46 49 49 49 51 58 63 68 69 66 61 60 61
49 65 64 61 62 59 57 54 45 54 44 41 57 57 58 57 54 56 57 58 55 55 55 58 62 66 63 63 62 62 56 59
30 55 70 70 68 63 64 61 54 54 58 52 47 55 62 61 62 56 60 63 67 67 69 75 69 68 72 59 62 58 59 54
22 30 61 76 74 69 63 65 62 53 55 64 62 60 60 64 63 67 69 70 74 74 72 72 71 62 59 60 61 59 60 57
17 21 32 49 67 74 67 63 67 65 68 59 72 71 69 67 69 72 76 74 68 65 65 65 61 57 55 58 60 59 59 61
16 13 25 35 45 56 68 67 62 64 65 63 68 72 74 72 73 73 73 73 71 65 67 63 61 62 61 60 63 66 65 64
15 14 13 24 34 45 55 58 64 70 65 67 64 70 70 74 72 70 66 58 60 58 57 57 55 58 58 60 61 62 62 64
17 14 14 18 26 34 37 39 53 53 53 55 55 54 61 67 66 56 56 61 63 66 66 67 64 62 57 57 58 60 65 65
11 15 17 16 20 27 33 36 40 40 48 45 44 45 47 45 52 54 52 60 60 57 59 61 56 54 52 53 54 57 66 67
14 11 15 18 20 21 26 31 36 41 46 49 45 45 45 47 51 52 51 52 58 55 51 51 49 47 46 51 59 58 57 60
10 9 10 14 19 19 19 19 23 32 36 38 38 38 40 42 44 44 44 44 43 43 45 44 41 37 47 45 49 53 53 65
11 10 9 11 16 16 15 22 24 24 24 28 30 30 31 34 36 37 39 41 44 45 43 40 39 42 43 41 47 47 50 65
11 11 14 13 11 11 10 9 9 11 14 19 22 24 26 31 34 36 37 36 36 33 36 36 34 35 42 41 44 52 61 65
19 14 13 15 15 14 12 13 16 15 12 14 14 16 18 19 20 20 20 25 28 26 27 31 44 46 47 50 55 59 67 74
26 21 17 17 14 16 17 18 18 17 16 19 20 22 25 24 21 18 20 23 22 27 32 41 43 48 56 59 59 56 59 64
32 28 25 23 21 17 17 18 17 18 20 21 23 24 26 29 31 30 31 35 34 33 37 41 45 49 51 54 57 60 63 65
38 36 32 30 27 25 25 24 24 23 23 23 25 27 29 29 32 34 40 40 43 44 47 49 52 54 56 60 61 66 70 71
42 39 37 34 34 32 32 33 31 29 29 30 32 34 35 36 36 39 43 46 48 50 52 54 56 59 61 62 65 69 72 77

GFSFLT1_250_spd_093.txt.gz
Wind_Speed
28 42 34 32 33 39 33 24 35 21 33 32 35 41 41 47 46 45 50 50 52 52 50 47 47 45 49 47 48 53 53 56
19 44 42 40 37 44 44 31 30 26 26 32 37 39 42 45 47 46 54 56 51 53 56 49 46 40 53 54 58 62 64 70
16 29 50 44 45 38 49 36 37 29 32 29 30 36 43 46 51 50 53 53 53 48 51 55 51 54 51 55 60 67 71 68
21 16 39 49 47 42 50 46 39 42 35 35 36 37 43 43 49 48 55 55 55 55 53 57 61 61 64 68 71 69 66 61
27 17 17 40 40 47 47 53 48 46 44 41 43 47 46 49 54 55 54 52 52 55 60 66 68 69 70 69 66 61 56 58
28 19 14 25 40 44 53 54 58 55 51 52 47 56 55 49 54 55 60 65 68 69 71 69 72 74 68 66 54 58 58 56
28 18 17 15 32 37 35 46 49 53 50 59 61 53 55 64 65 61 65 65 67 69 71 75 73 65 56 58 59 56 56 52
26 23 17 13 17 23 34 42 46 50 56 56 61 59 58 57 65 72 73 76 77 80 79 64 59 55 55 59 59 55 50 50
23 21 17 13 11 17 22 31 34 34 35 45 58 52 55 55 55 63 64 62 67 66 67 60 57 54 52 55 52 52 51 48
21 20 18 14 13 13 19 23 26 27 28 31 42 43 47 50 55 50 52 54 56 52 51 52 51 52 55 49 47 48 44 52
19 18 17 16 12 13 13 18 26 28 28 28 31 33 37 40 42 44 46 46 47 49 50 53 52 48 44 43 43 42 43 44
19 17 14 11 11 9 13 15 17 23 27 30 32 32 34 39 40 43 45 46 48 51 53 51 48 44 45 43 43 45 45 50
21 19 16 15 11 5 8 12 16 19 20 23 24 28 32 34 33 35 39 41 42 43 44 45 45 43 43 40 43 45 47 50
25 21 18 13 11 8 7 5 4 6 8 14 16 19 22 25 29 32 34 35 37 33 27 27 28 27 33 38 41 43 48 51
32 26 21 18 13 10 10 10 9 10 10 10 11 10 11 13 14 16 18 18 19 20 20 24 28 35 38 39 42 45 43 45
34 34 27 25 18 14 12 13 13 13 14 15 17 18 18 19 19 21 22 23 25 27 27 32 34 34 37 41 46 50 53 55
38 39 38 30 27 24 17 15 16 17 17 16 16 18 19 20 21 24 26 30 33 35 38 43 43 46 49 51 53 56 58 59
43 42 41 36 35 32 27 22 22 24 25 24 22 22 23 23 24 27 28 30 33 36 40 44 47 50 53 55 59 59 62 65
51 45 44 41 39 36 36 31 30 32 30 31 32 31 30 29 30 32 33 36 39 40 43 47 50 51 55 59 62 64 66 68

GFSFLT1_250_spd_096.txt.gz
Wind_Speed
28 21 18 32 36 37 29 30 32 30 31 33 38 37 50 45 47 38 38 37 37 36 40 32 35 38 42 37 43 50 44 49
25 24 20 39 34 39 35 32 35 31 27 26 32 39 42 42 42 42 41 39 42 46 46 43 52 50 50 54 55 44 52 49
25 24 20 25 43 31 43 35 33 37 31 30 29 35 40 39 41 44 49 52 49 49 52 53 54 56 56 54 53 55 54 59
26 24 21 16 39 43 43 44 35 36 33 38 38 39 43 44 48 46 49 51 50 51 51 53 55 52 60 55 56 58 57 67
27 24 22 14 25 48 46 50 45 36 36 38 40 39 42 42 48 49 52 56 57 53 58 58 61 64 61 64 66 68 70 76
27 24 21 15 13 37 51 45 55 50 43 40 39 38 44 46 46 44 47 47 53 53 55 58 59 58 61 66 67 74 74 71
24 25 22 15 14 24 45 49 48 57 51 52 49 42 45 45 46 50 54 55 55 55 58 61 63 69 73 74 71 62 61 55
22 24 22 15 17 12 29 43 45 54 60 52 51 56 51 58 53 54 58 55 61 64 65 65 65 69 70 70 71 64 61 55
21 23 22 16 14 15 16 31 40 42 47 49 53 52 56 62 60 59 60 65 69 67 73 73 69 64 68 71 67 65 60 54
20 19 22 19 14 14 13 18 29 36 39 41 44 46 48 53 60 67 68 64 61 63 65 64 63 61 59 60 55 56 54 60
22 19 20 19 16 12 16 16 21 30 32 32 36 40 41 44 47 48 48 50 51 52 53 54 55 57 55 53 55 58 59 54
25 23 18 18 15 11 14 17 19 21 27 30 31 33 37 40 40 42 42 46 48 49 51 52 52 53 55 55 51 51 49 49
24 30 21 19 18 15 11 15 18 22 23 28 32 38 39 40 42 42 44 46 46 47 49 51 50 48 45 46 46 49 47 48
29 31 30 22 19 16 15 14 16 18 23 22 22 24 26 29 30 34 38 38 38 39 43 43 42 41 38 36 33 36 37 40
38 31 35 30 25 20 14 17 15 15 15 14 13 16 19 22 22 23 22 23 26 27 30 31 29 28 29 32 35 39 41 44
43 33 37 37 31 28 21 18 18 19 19 17 18 19 20 21 22 23 22 20 20 21 25 29 32 35 36 38 42 45 48 51
43 33 40 40 37 32 30 27 23 22 19 18 17 17 17 18 18 18 19 19 21 22 25 28 32 36 40 44 45 47 49 52
46 39 43 40 41 38 36 36 33 30 27 24 24 24 24 25 25 25 26 28 28 29 30 33 36 39 43 46 48 49 51 54
55 47 44 45 45 45 41 41 41 40 37 33 31 33 34 32 33 34 34 36 36 37 39 40 42 45 48 51 52 52 54 56

GFSFLT1_250_spd_099.txt.gz
Wind_Speed
25 19 20 18 33 32 32 25 32 37 33 32 32 29 29 48 54 49 44 43 43 40 40 39 32 36 36 31 28 33 39 38
24 19 21 22 33 36 38 32 30 38 41 39 41 34 31 38 45 47 48 48 42 40 35 36 38 35 38 35 39 44 46 50
23 21 22 24 20 35 41 39 33 37 40 35 36 41 29 33 41 47 47 46 44 38 36 36 41 38 47 39 42 50 55 54
24 21 22 24 14 39 45 46 40 36 38 32 40 29 31 29 43 48 42 45 43 37 34 38 41 42 47 48 50 57 59 62
26 21 21 22 17 30 44 40 44 38 40 30 32 33 32 35 40 47 42 40 41 43 46 45 48 56 53 54 55 57 61 65
29 22 18 21 18 16 36 32 45 42 41 45 40 42 42 37 40 46 47 48 48 49 52 57 61 58 59 59 60 65 65 71
29 22 19 20 19 12 32 36 45 48 43 46 46 47 49 42 47 49 52 51 53 57 57 58 59 62 62 64 66 64 66 70
29 21 20 19 20 11 17 37 42 49 49 47 47 49 50 51 53 53 55 57 60 60 58 58 60 62 63 64 69 69 72 73
28 23 20 19 18 15 9 27 45 49 62 52 52 51 51 53 57 56 58 58 58 60 61 61 64 64 65 68 72 77 79 75
28 25 22 19 19 15 11 14 36 50 55 64 61 57 56 57 57 59 57 57 58 57 61 64 66 70 73 72 69 69 68 69
30 26 22 22 20 19 13 13 19 39 50 57 68 63 64 63 64 63 61 62 62 63 66 67 65 67 67 68 65 67 66 66
32 28 22 24 21 21 18 15 16 20 36 52 58 65 67 63 62 64 63 65 63 65 62 62 61 59 59 60 62 65 64 64
39 32 24 20 25 22 23 19 16 18 23 32 50 55 59 61 62 59 60 61 60 59 57 59 60 61 62 64 65 64 61 58
41 33 30 28 23 28 24 21 21 20 19 24 29 37 44 50 56 58 58 58 57 57 58 60 61 64 60 59 57 56 54 46
44 38 38 35 31 29 30 23 22 22 21 20 23 28 30 35 41 46 48 50 51 51 51 51 50 47 46 44 41 39 40 43
48 39 37 42 37 29 35 31 25 25 24 22 22 24 27 28 30 33 35 36 37 36 36 37 37 35 33 37 40 43 46 48
48 45 40 42 42 34 33 39 32 29 27 26 27 30 29 28 28 30 31 31 33 34 34 35 33 34 38 40 42 44 46 49
48 47 43 42 45 46 40 40 41 35 34 32 31 30 29 28 29 29 29 30 31 33 34 36 37 39 42 44 47 50 51 53
52 50 51 50 54 44 42 34 45 46 40 37 38 40 40 38 37 37 37 37 37 39 40 42 42 44 48 51 53 55 57 60

GFSFLT1_250_spd_102.txt.gz
Wind_Speed
25 27 28 16 12 22 34 33 27 64 72 67 66 61 67 63 64 66 51 48 51 51 48 43 46 40 34 28 29 34 30 29
24 26 28 18 14 11 35 42 31 29 66 68 66 65 66 65 64 63 60 53 51 53 48 42 41 44 37 34 33 35 36 34
26 27 27 23 18 13 34 43 38 33 32 50 65 61 59 52 53 66 62 63 55 52 46 43 37 41 42 38 41 41 42 39
26 25 26 27 20 14 20 42 41 41 30 41 42 40 43 39 40 38 42 58 59 54 47 46 40 37 36 40 42 45 47 45
27 23 26 28 21 14 16 38 45 47 38 44 44 42 39 40 37 39 42 43 51 50 44 42 41 38 38 39 41 49 52 52
28 25 25 26 23 17 13 32 49 50 47 40 48 40 35 46 37 36 46 47 47 48 47 46 42 41 38 43 52 59 59 58
30 27 24 24 25 18 13 20 48 48 50 45 46 45 43 43 45 41 39 49 50 47 49 46 44 47 48 55 61 63 62 66
32 28 24 23 27 19 14 14 40 46 54 52 47 46 42 45 47 45 45 49 52 51 52 49 51 55 59 62 66 66 67 67
34 32 26 25 25 22 16 14 23 46 53 54 51 49 49 51 47 50 45 47 53 56 54 56 58 60 62 64 66 68 69 69
31 31 28 26 20 25 19 14 17 39 51 52 55 51 53 53 52 52 51 51 52 53 55 56 59 61 65 68 70 71 69 70
38 33 35 30 17 22 24 18 13 20 47 53 56 57 56 55 56 56 55 54 55 57 58 61 64 66 69 71 73 75 74 76
41 37 36 36 19 18 23 21 18 15 24 52 58 61 61 61 61 60 62 62 62 63 65 66 67 66 66 68 72 74 79 84
42 41 40 39 31 20 20 20 22 20 18 26 48 60 66 63 62 62 64 67 68 69 71 70 71 73 74 76 79 81 80 79
43 45 42 39 37 26 24 20 22 24 22 20 24 37 61 62 68 67 71 71 71 72 72 73 74 76 79 79 82 81 76 74
52 47 42 39 41 30 28 19 21 26 25 22 19 23 29 39 54 60 67 73 75 73 76 78 79 78 72 71 72 73 73 74
50 44 46 43 44 38 31 25 25 25 30 30 25 20 21 23 33 44 53 59 63 67 68 67 67 66 68 68 67 65 62 60
53 52 46 45 44 41 33 33 27 27 28 33 33 28 25 23 24 27 30 35 38 42 46 49 50 49 51 52 51 52 52 51
59 56 54 53 50 46 41 35 30 35 30 31 37 36 34 31 29 29 30 32 35 37 40 41 43 45 48 49 48 48 49 52
66 62 56 48 48 50 45 41 34 40 35 36 32 39 40 40 41 39 39 39 39 39 39 39 42 45 49 52 54 55 55 57

GFSFLT1_250_spd_105.txt.gz
Wind_Speed
31 23 31 33 29 29 22 31 32 39 40 53 62 59 56 53 53 61 54 53 47 41 42 41 38 35 37 37 41 42 37 33
30 23 31 33 34 27 27 26 31 38 35 54 62 63 59 57 50 63 58 51 49 48 49 40 37 40 43 46 43 42 38 33
27 21 30 32 32 31 25 24 38 37 39 44 62 65 61 60 58 57 58 60 52 43 41 41 42 41 43 47 43 42 35 35
28 22 28 29 28 31 23 25 30 42 38 38 50 69 68 66 66 65 61 58 55 56 49 47 46 42 49 46 47 49 43 42
28 25 30 30 30 29 27 23 26 46 42 41 46 59 66 72 66 60 60 61 59 58 55 56 58 53 53 47 44 46 47 46
29 28 29 30 28 26 30 23 24 37 51 43 39 39 63 71 72 66 63 68 62 58 58 55 60 59 57 52 48 47 48 52
31 31 29 32 28 24 27 22 22 26 47 50 43 38 38 54 61 69 55 54 58 53 46 51 59 56 60 60 53 52 54 56
33 31 30 30 29 26 24 21 20 24 39 47 44 47 41 40 44 50 54 52 44 44 42 40 50 54 59 60 56 52 58 60
37 34 31 32 30 24 20 20 20 20 28 47 49 52 48 43 45 48 47 55 46 46 47 50 53 55 57 60 59 60 62 64
40 37 35 32 31 25 18 20 19 19 18 44 51 58 54 48 48 48 47 49 48 55 50 54 56 60 60 62 65 66 65 66
43 37 32 29 32 27 24 21 20 18 17 28 52 56 57 56 54 50 48 47 50 50 51 54 60 62 65 67 67 67 68 69
44 40 32 31 34 30 27 23 21 18 18 17 37 56 55 59 57 55 53 53 55 54 54 55 57 62 64 67 69 69 71 72
48 40 35 35 36 28 31 30 26 20 19 18 19 41 53 56 59 58 57 58 60 61 61 61 61 64 66 68 70 73 74 76
50 45 40 41 39 36 35 31 30 24 21 21 17 20 33 47 57 64 61 59 60 60 62 63 63 66 67 71 74 76 79 80
50 48 46 44 43 41 38 36 30 25 24 22 23 19 21 28 40 52 68 66 67 65 66 66 69 72 74 76 76 77 80 82
55 51 47 45 44 44 42 37 29 30 24 19 22 27 24 22 25 31 38 53 73 75 76 78 75 79 81 81 80 81 79 83
56 55 49 47 47 42 44 40 34 34 33 22 20 20 29 29 27 25 27 31 40 48 53 56 66 68 71 74 77 81 78 76
54 58 50 35 36 46 43 41 37 37 39 30 28 24 25 31 34 33 30 30 30 31 33 37 42 46 50 53 54 55 57 57
55 56 56 50 53 43 46 49 48 46 41 42 35 34 30 30 31 36 38 39 40 41 41 42 42 45 49 51 53 53 54 56

GFSFLT1_250_spd_108.txt.gz
Wind_Speed
42 40 32 33 25 26 26 27 29 28 24 33 34 38 38 37 42 47 47 43 48 44 40 31 25 19 21 24 26 28 28 32
40 39 32 30 25 25 26 29 29 28 25 33 41 43 46 44 49 50 52 55 49 47 39 32 34 33 29 33 32 32 33 35
38 43 32 30 24 22 25 29 26 26 25 32 47 52 51 52 57 51 56 57 54 46 42 40 37 39 40 37 34 34 35 41
38 43 32 29 24 21 23 28 24 28 27 33 42 54 58 55 61 58 56 59 57 52 47 41 41 40 40 41 37 34 38 44
37 38 34 29 26 23 24 26 27 28 28 27 42 49 57 63 60 64 62 60 54 52 52 49 49 45 48 45 43 40 38 42
40 39 35 29 27 21 23 22 27 28 25 27 36 45 53 57 69 66 61 58 53 57 60 56 55 50 49 51 51 43 43 47
43 40 37 34 26 22 23 24 24 26 22 27 28 46 43 50 54 62 62 62 65 62 62 59 55 57 55 55 50 48 48 50
42 42 39 34 26 24 20 22 23 25 23 22 24 41 47 42 41 44 49 58 63 65 65 61 55 54 51 52 53 55 54 55
43 43 39 36 28 25 23 22 18 21 21 19 23 30 46 43 39 34 41 48 50 52 55 56 51 48 45 45 47 51 55 58
43 44 43 37 32 27 23 22 19 19 19 17 21 22 42 45 44 34 34 41 40 47 47 44 45 45 46 48 50 55 60 62
46 44 41 38 33 29 24 22 23 20 20 16 14 19 36 47 44 42 39 42 47 46 47 48 48 52 54 57 59 59 64 66
45 46 46 39 31 32 25 25 25 25 20 20 16 15 18 41 48 46 43 43 45 48 49 49 51 53 58 61 63 64 66 66
50 47 45 39 33 33 27 26 25 23 25 25 23 17 15 18 35 50 52 52 50 53 55 54 53 55 58 61 60 63 65 66
56 49 46 47 38 36 31 26 27 25 25 26 27 26 20 18 22 41 52 54 55 57 60 60 58 58 58 61 63 65 65 67
60 54 45 39 40 43 37 32 31 31 27 28 27 28 27 22 20 23 35 55 54 54 56 58 60 62 64 67 69 69 70 72
57 50 42 46 38 38 41 38 35 36 35 30 27 27 27 28 27 24 24 28 40 64 64 64 62 65 68 69 71 73 74 76
54 54 36 41 42 37 33 35 40 39 43 36 32 28 31 28 30 35 28 25 26 31 40 62 74 78 76 69 64 68 73 76
55 54 60 57 51 40 35 34 35 38 42 41 34 28 30 31 27 27 31 34 35 31 30 33 37 39 44 46 50 54 57 60
67 57 56 56 53 47 42 39 36 45 38 37 39 38 38 37 36 34 32 30 33 37 40 42 43 44 44 45 47 48 51 53

GFSFLT1_250_spd_111.txt.gz
Wind_Speed
37 35 45 46 37 39 39 32 26 22 22 18 17 25 24 43 54 63 45 46 50 54 53 46 34 27 20 20 18 19 20 22
37 37 47 44 38 40 36 29 24 21 21 18 17 28 28 29 31 35 29 38 45 48 59 44 39 35 28 21 23 21 24 26
38 40 47 44 39 37 32 25 21 20 19 20 15 32 33 36 33 33 29 35 40 46 47 47 46 40 32 28 28 28 29 28
39 46 46 42 40 34 29 22 19 19 21 19 16 30 40 38 40 38 43 44 44 45 51 51 45 39 38 32 31 34 29 29
43 49 45 44 39 34 28 23 20 22 24 22 17 24 45 45 45 48 49 53 56 53 52 51 47 39 39 36 35 32 32 39
45 49 48 41 37 35 27 23 19 20 23 23 19 18 44 54 52 53 54 52 59 57 55 57 46 42 43 41 41 46 44 46
50 47 45 40 37 34 27 22 19 20 23 24 21 20 29 55 59 60 59 58 57 56 57 55 54 50 48 50 49 48 48 52
48 44 48 44 39 34 30 24 17 19 21 22 21 21 20 48 62 61 64 64 62 56 54 55 54 50 50 50 51 53 55 56
51 51 51 48 38 34 32 26 19 17 19 22 18 20 20 22 58 60 63 62 64 63 62 58 52 52 54 54 57 55 56 51
51 56 54 49 41 37 36 28 20 17 19 20 18 19 17 15 36 53 51 59 65 66 66 61 60 60 57 58 59 56 53 50
56 59 55 49 43 39 37 30 21 21 18 22 18 15 14 11 16 44 45 42 46 49 54 55 54 52 51 53 54 54 55 54
57 53 51 48 43 42 38 29 25 21 21 21 22 16 12 10 11 29 45 43 41 41 44 46 48 46 49 53 51 52 56 55
56 51 54 52 46 45 42 34 28 24 21 22 22 24 13 13 11 17 34 44 42 42 39 44 46 48 49 50 56 56 53 52
52 51 49 48 46 48 42 34 29 26 22 21 17 21 21 14 15 14 22 37 43 41 41 40 43 45 49 53 53 51 53 54
56 53 48 45 41 44 44 37 31 31 25 25 25 21 23 22 17 17 18 24 41 45 44 45 48 51 54 57 60 61 62 63
55 53 53 48 47 46 42 41 38 34 29 29 29 29 27 24 25 21 21 22 23 42 38 49 53 54 56 58 59 61 61 62
61 55 56 53 50 47 42 37 40 41 39 35 34 33 32 26 28 31 28 25 26 28 38 46 34 46 56 59 62 64 67 69
59 56 58 59 53 46 42 36 39 38 38 34 36 34 34 32 31 31 28 30 30 30 33 35 38 40 45 47 47 47 48 51
62 59 60 59 49 46 47 47 43 40 40 35 37 34 29 30 33 30 31 35 32 33 32 35 40 40 39 40 41 42 45 47

GFSFLT1_250_spd_114.txt.gz
Wind_Speed
69 67 64 56 42 39 41 41 41 34 26 25 21 17 18 30 34 46 54 45 36 35 27 36 35 28 22 19 18 14 13 8
67 64 61 53 40 37 38 41 38 34 26 24 19 13 17 27 25 37 56 66 52 46 40 34 45 42 31 22 19 17 17 14
69 68 60 49 36 36 39 40 39 32 26 21 18 13 16 25 25 27 35 67 56 57 54 50 48 45 44 43 29 23 20 20
73 65 52 45 36 35 43 41 38 30 25 22 17 16 17 27 28 27 27 48 50 45 52 50 52 47 45 41 34 30 25 24
70 56 45 41 33 34 44 40 38 28 25 23 19 16 15 33 31 33 32 37 39 44 51 53 50 42 43 42 39 35 34 28
62 54 45 36 34 41 44 39 38 28 25 21 18 16 17 34 35 37 39 38 47 53 46 41 42 40 42 45 44 36 36 29
48 48 45 35 35 46 46 41 37 29 24 22 19 19 16 24 43 43 41 45 48 52 50 50 45 46 42 44 43 41 43 40
47 44 43 35 39 48 48 42 38 29 23 24 19 21 15 20 42 49 51 49 52 57 55 54 52 51 52 50 48 46 45 45
46 43 40 34 39 49 46 42 40 28 23 24 20 21 14 21 21 54 56 58 54 59 60 56 54 52 51 53 55 51 51 51
42 44 41 37 46 49 47 44 40 28 23 21 21 18 15 16 20 28 63 62 61 58 55 58 57 56 55 54 52 52 50 52
42 45 39 41 50 47 44 45 38 30 26 20 21 21 15 15 18 20 43 69 66 63 61 58 54 54 55 55 54 53 55 58
44 45 41 46 51 47 46 47 37 33 26 25 24 21 18 14 14 16 28 53 69 69 60 60 60 59 59 61 61 59 58 57
47 45 44 52 51 50 51 44 38 35 29 27 26 21 20 17 11 13 14 38 54 52 50 49 50 53 53 56 58 54 52 54
47 46 48 52 52 55 52 45 41 39 33 28 27 20 18 17 11 11 10 27 44 46 43 45 42 45 44 46 49 51 52 55
47 48 52 54 51 54 50 44 45 44 39 31 27 21 20 21 17 11 11 13 34 47 43 42 41 38 41 44 48 52 55 53
48 50 55 54 50 59 56 50 47 46 40 33 31 28 24 23 23 20 14 12 15 26 42 43 42 41 43 49 54 55 54 55
52 56 60 55 57 61 59 58 51 49 43 37 36 33 28 25 27 24 19 20 16 17 20 30 38 40 47 53 54 56 59 63
60 60 66 57 59 62 63 60 56 51 46 41 37 35 33 31 32 28 22 25 25 23 23 26 34 40 42 44 48 51 54 58
68 67 65 61 61 64 59 58 55 51 49 45 43 42 39 36 36 30 28 31 30 30 29 31 31 35 40 45 50 52 54 56

GFSFLT1_250_spd_117.txt.gz
Wind_Speed
71 67 64 56 61 60 60 52 41 39 33 32 33 26 20 22 26 31 32 42 53 51 41 36 35 32 28 26 22 17 14 13
65 67 60 58 63 60 56 48 40 38 34 34 33 25 19 21 25 31 27 43 47 47 50 48 36 39 34 31 27 22 17 19
62 61 60 59 61 61 57 43 37 35 35 36 32 25 19 21 24 31 31 45 47 49 47 43 35 43 38 36 27 22 24 20
61 60 60 61 62 60 57 36 35 34 37 37 30 26 18 22 25 31 26 48 51 44 48 42 35 41 42 42 38 34 33 26
60 59 61 60 60 60 49 32 35 36 39 37 31 25 22 22 30 32 28 39 49 54 50 48 44 48 40 44 44 41 37 32
67 60 62 59 59 57 41 32 38 41 42 37 34 26 21 22 27 36 31 33 40 50 59 53 54 48 47 41 44 45 40 35
63 65 58 59 56 58 34 34 41 43 42 37 35 25 22 19 27 36 34 35 36 50 56 51 53 52 52 46 44 38 36 37
67 60 52 57 53 54 30 36 45 44 39 38 34 25 21 19 26 33 41 39 39 48 48 54 52 54 50 51 44 41 39 40
64 56 55 56 50 46 30 43 47 45 39 36 33 27 22 19 24 33 44 45 42 47 54 60 63 53 51 50 48 48 45 43
60 58 56 55 47 41 32 49 50 46 39 37 32 27 22 19 20 34 37 50 49 50 61 67 61 60 59 57 51 45 45 47
64 63 52 51 49 38 38 53 51 47 41 39 31 26 21 20 23 32 38 45 55 55 60 65 67 62 61 59 53 51 51 50
61 55 51 57 53 39 47 55 52 48 45 40 31 26 21 21 22 23 30 36 58 62 62 61 63 65 60 55 52 54 53 55
59 55 55 59 49 40 55 56 54 49 46 42 35 27 22 21 21 18 22 25 44 66 66 65 63 60 60 58 56 52 57 54
61 54 56 56 47 43 61 57 56 50 49 44 36 30 24 20 18 18 18 21 20 45 71 72 62 56 47 46 50 53 52 54
55 52 54 49 46 49 62 58 54 51 52 46 37 32 28 22 18 15 14 16 13 22 36 60 68 67 66 63 62 62 56 52
53 52 48 48 45 58 62 60 56 56 52 49 40 36 33 28 24 21 15 14 15 10 34 45 52 53 50 49 48 48 52 57
49 52 44 48 46 63 63 61 59 53 53 51 43 38 36 33 29 26 22 18 18 16 18 42 50 50 51 51 49 50 47 53
51 51 45 46 57 66 61 62 61 55 53 53 47 41 39 40 36 31 26 23 22 19 22 22 34 47 45 50 50 50 53 56
57 49 47 52 65 66 60 63 62 58 55 54 50 46 42 40 41 35 29 28 28 27 29 26 28 31 40 54 55 55 58 61

GFSFLT1_250_spd_120.txt.gz
Wind_Speed
52 59 62 62 66 67 67 60 61 53 52 46 35 29 32 34 30 26 29 33 30 37 44 44 39 37 34 34 33 25 23 20
59 61 64 67 67 66 66 61 57 51 51 44 31 28 34 34 30 28 29 36 31 44 49 45 39 35 35 40 35 26 27 24
60 64 68 70 69 67 67 59 56 53 49 40 30 29 35 34 31 28 28 30 31 47 52 47 40 38 39 39 32 29 27 27
59 65 67 68 67 65 65 64 55 52 48 39 32 33 37 35 29 30 28 28 34 48 55 49 46 40 42 39 35 32 32 28
62 66 70 69 66 59 60 59 54 56 47 38 33 36 39 35 29 31 25 31 35 45 52 57 48 46 44 42 43 38 37 34
62 67 66 57 60 58 56 57 53 53 46 36 34 37 39 34 29 29 23 33 34 39 56 56 56 57 48 43 45 45 41 38
63 64 59 62 61 55 54 54 50 51 42 35 37 38 38 32 32 30 24 34 32 34 56 58 53 52 45 42 42 47 46 44
61 59 62 58 54 54 53 53 47 50 39 35 39 41 37 33 31 29 27 33 35 35 49 53 54 55 51 52 52 52 49 50
63 60 55 56 54 55 54 51 48 48 38 37 42 44 38 36 32 30 33 29 39 36 37 56 57 56 57 56 52 53 50 48
58 59 61 63 58 56 57 48 47 43 40 39 44 43 39 36 32 29 29 25 43 38 39 48 56 62 58 62 58 55 58 49
60 60 59 58 56 53 54 50 49 43 41 43 47 44 40 37 31 29 21 29 40 45 42 45 57 67 66 70 62 59 60 53
63 64 63 63 56 59 57 53 49 42 45 49 49 41 42 39 33 28 25 20 33 45 48 46 55 61 67 68 69 69 67 65
66 66 64 61 57 60 58 53 52 42 49 55 53 44 45 40 34 29 20 20 25 32 54 54 52 57 68 66 64 62 63 58
72 68 64 64 62 62 57 54 52 44 53 60 55 47 45 40 34 29 25 23 21 27 38 63 59 64 68 72 74 71 62 58
71 70 67 66 61 54 58 53 48 48 58 63 56 51 45 40 34 30 26 24 22 24 31 44 68 65 72 76 74 69 64 63
63 62 60 59 55 54 56 52 44 52 62 64 60 53 48 42 36 31 27 24 22 22 23 27 44 73 71 73 72 67 62 60
62 59 59 58 55 54 55 47 47 56 64 67 63 56 49 46 42 35 32 29 23 20 19 17 22 34 71 76 67 62 61 57
60 61 58 54 53 53 49 44 49 60 68 67 61 57 52 48 45 39 36 32 29 24 23 20 28 33 37 47 60 64 59 55
59 61 57 57 54 50 44 49 52 64 70 65 60 58 54 51 46 43 39 36 31 27 23 25 25 39 43 46 50 53 54 57

GFSFLT1_250_spd_123.txt.gz
Wind_Speed
59 57 53 54 52 47 53 59 65 67 66 66 64 64 56 47 35 36 37 34 32 35 36 38 36 38 40 40 36 38 34 28
60 56 53 51 51 54 56 61 64 68 67 64 64 62 54 43 34 37 37 35 35 34 35 40 39 40 43 40 40 37 36 30
65 59 56 53 53 53 57 61 61 66 63 65 63 61 52 41 34 39 37 32 35 31 36 38 42 43 44 43 40 39 35 32
69 65 62 60 58 58 51 60 62 65 62 60 59 56 53 39 36 40 39 33 33 34 37 39 43 44 47 40 42 41 36 35
72 70 66 65 61 59 55 59 65 64 56 55 57 56 49 36 36 42 38 34 30 35 34 40 44 48 47 39 44 41 41 39
73 72 70 66 66 64 57 59 63 64 55 58 56 53 44 35 36 42 37 36 30 30 33 38 43 50 47 41 43 44 42 40
74 71 72 67 63 68 57 61 63 60 59 58 54 52 38 33 36 41 38 37 29 30 33 39 39 49 49 45 42 47 41 39
74 73 74 71 70 69 61 61 61 56 57 54 53 48 33 33 38 40 40 35 30 32 34 40 46 50 54 49 45 48 42 42
74 74 76 76 75 68 63 62 57 55 54 52 51 46 33 37 41 41 41 38 33 32 38 41 46 52 56 55 50 47 45 48
74 73 73 71 68 65 64 63 55 53 53 57 53 40 31 39 41 42 40 34 32 30 42 37 36 44 53 56 55 52 49 46
77 74 76 73 69 65 60 59 59 57 56 53 53 37 32 41 42 44 42 35 36 34 42 38 37 37 42 50 50 53 53 52
77 77 76 72 63 59 59 58 57 54 48 52 46 39 36 44 44 45 44 38 35 36 35 45 42 38 44 50 51 58 55 55
77 78 73 68 62 62 61 60 57 48 57 53 48 39 42 47 47 47 44 37 34 30 36 45 45 44 40 48 53 52 59 61
78 77 73 67 65 64 61 62 55 61 62 53 47 38 49 53 49 50 47 41 35 38 38 36 50 48 46 49 58 57 56 60
76 77 71 68 69 65 65 67 67 65 59 53 49 40 54 55 53 52 48 43 38 35 33 44 38 54 53 52 53 60 63 63
77 73 68 74 70 70 72 72 69 63 57 58 56 44 60 58 56 53 50 43 38 37 36 34 42 42 58 58 55 60 63 68
67 67 65 69 75 75 73 72 70 65 63 60 54 50 64 61 59 55 50 45 39 37 37 33 30 38 50 54 62 61 64 65
66 64 64 66 70 72 69 70 70 66 61 59 49 54 69 65 62 57 50 45 41 38 38 34 28 29 32 41 63 69 62 73
61 59 61 61 61 64 63 62 61 60 60 59 48 57 73 66 63 58 51 47 44 42 39 34 31 25 26 28 26 40 67 74